Multibeam Report for NBP1310


Ship Name: Nathaniel B. Palmer
Chief Scientist: Smith, Kathryn
Florida Institute of Technology
Source Organization: Marine Geoscience Data System (MGDS)
Start Date: 2013-11-19
End Date: 2013-12-03


View ISO Metadata

Visit the full NCEI Bathymetry Viewer


Multibeam Bathymetry

Cruise Details

Project: Environmental factors that control the distribution of Phaeocystis antarctica in the Southern Ocean
Instrument: Kongsberg EM120

Data Quality

Number of Files: 1352
Number of Records: 996529
BATHYMETRY DATA Quantity Percentage
Number of Beams 190138972 100%
Number of Good Beams 164875530 86.71%
Number of Zero Beams 25263442 13.29%
Number of Flagged Beams 0 0%
AMPLITUDE DATA Quantity Percentage
Number of Beams 190138972 100%
Number of Good Beams 164875530 86.71%
Number of Zero Beams 25263442 13.29%
Number of Flagged Beams 0 0%
SIDESCAN DATA Quantity Percentage
Number of Pixels 1019383808 100%
Number of Good Pixels 678017294 66.51%
Number of Zero Pixels 0 0%
Number of Flagged Pixels 341366514 33.49%

Navigation Totals

Total Time: 1335.2496 hours
Total Track Length: 14970.4014 km
Average Speed: 11.212 km/hr (6.0540 knots)

Cruise Bounds

Northern Extent: -52.457066
Southern Extent: -77.74956
Western Extent: 149.20831
Eastern Extent: -64.84277

Limits

Minimum Sonar Depth 5.27 Maximum Sonar Depth 9.08
Minimum Altitude 0 Maximum Altitude 8471.8398
Minimum Depth 136.8 Maximum Depth 9287.2402
Minimum Amplitude 0 Maximum Amplitude 26
Minimum Sidescan 0 Maximum Sidescan 63

File Information

Full Resolution Bathymetry as collected (raw): 1349

Files File Size Description
0000_20131122_052321_raw.all.mb56.gz 9.96MB Simrad multibeam vendor format
0001_20131122_062321_raw.all.mb56.gz 9.81MB Simrad multibeam vendor format
0002_20131122_072321_raw.all.mb56.gz 9.67MB Simrad multibeam vendor format
0003_20131122_082321_raw.all.mb56.gz 9.85MB Simrad multibeam vendor format
0004_20131122_092321_raw.all.mb56.gz 9.46MB Simrad multibeam vendor format
0005_20131122_102321_raw.all.mb56.gz 9.86MB Simrad multibeam vendor format
0006_20131122_112321_raw.all.mb56.gz 9.96MB Simrad multibeam vendor format
0007_20131122_122321_raw.all.mb56.gz 9.78MB Simrad multibeam vendor format
0008_20131122_132321_raw.all.mb56.gz 9.51MB Simrad multibeam vendor format
0009_20131122_142321_raw.all.mb56.gz 9.84MB Simrad multibeam vendor format
0010_20131122_152321_raw.all.mb56.gz 9.63MB Simrad multibeam vendor format
0011_20131122_162321_raw.all.mb56.gz 9.42MB Simrad multibeam vendor format
0012_20131122_172321_raw.all.mb56.gz 10.31MB Simrad multibeam vendor format
0013_20131122_182321_raw.all.mb56.gz 10.44MB Simrad multibeam vendor format
0014_20131122_192321_raw.all.mb56.gz 10.21MB Simrad multibeam vendor format
0015_20131122_202321_raw.all.mb56.gz 10.21MB Simrad multibeam vendor format
0016_20131122_212321_raw.all.mb56.gz 10.25MB Simrad multibeam vendor format
0017_20131122_222321_raw.all.mb56.gz 8.80MB Simrad multibeam vendor format
0018_20131122_232321_raw.all.mb56.gz 8.57MB Simrad multibeam vendor format
0019_20131123_002321_raw.all.mb56.gz 8.23MB Simrad multibeam vendor format
0020_20131123_012321_raw.all.mb56.gz 8.28MB Simrad multibeam vendor format
0021_20131123_022321_raw.all.mb56.gz 8.69MB Simrad multibeam vendor format
0022_20131123_032321_raw.all.mb56.gz 8.81MB Simrad multibeam vendor format
0023_20131123_042321_raw.all.mb56.gz 8.50MB Simrad multibeam vendor format
0024_20131123_052321_raw.all.mb56.gz 8.50MB Simrad multibeam vendor format
0025_20131123_062321_raw.all.mb56.gz 8.52MB Simrad multibeam vendor format
0026_20131123_072321_raw.all.mb56.gz 8.34MB Simrad multibeam vendor format
0027_20131123_082321_raw.all.mb56.gz 8.51MB Simrad multibeam vendor format
0028_20131123_092321_raw.all.mb56.gz 8.46MB Simrad multibeam vendor format
0029_20131123_102321_raw.all.mb56.gz 8.56MB Simrad multibeam vendor format
0030_20131123_112321_raw.all.mb56.gz 8.50MB Simrad multibeam vendor format
0031_20131123_122321_raw.all.mb56.gz 8.48MB Simrad multibeam vendor format
0032_20131123_132321_raw.all.mb56.gz 6.56MB Simrad multibeam vendor format
0033_20131123_153629_raw.all.mb56.gz 8.73MB Simrad multibeam vendor format
0034_20131123_163629_raw.all.mb56.gz 15.08MB Simrad multibeam vendor format
0035_20131123_173629_raw.all.mb56.gz 13.63MB Simrad multibeam vendor format
0036_20131123_181617_raw.all.mb56.gz 20.14MB Simrad multibeam vendor format
0037_20131123_191617_raw.all.mb56.gz 20.23MB Simrad multibeam vendor format
0038_20131123_201617_raw.all.mb56.gz 20.18MB Simrad multibeam vendor format
0039_20131123_211617_raw.all.mb56.gz 18.95MB Simrad multibeam vendor format
0040_20131123_221617_raw.all.mb56.gz 15.10MB Simrad multibeam vendor format
0041_20131123_231617_raw.all.mb56.gz 12.23MB Simrad multibeam vendor format
0042_20131124_001617_raw.all.mb56.gz 12.34MB Simrad multibeam vendor format
0043_20131124_011617_raw.all.mb56.gz 13.41MB Simrad multibeam vendor format
0044_20131124_021617_raw.all.mb56.gz 13.80MB Simrad multibeam vendor format
0045_20131124_031617_raw.all.mb56.gz 14.14MB Simrad multibeam vendor format
0046_20131124_041616_raw.all.mb56.gz 18.41MB Simrad multibeam vendor format
0047_20131124_051616_raw.all.mb56.gz 23.81MB Simrad multibeam vendor format
0048_20131124_061616_raw.all.mb56.gz 23.87MB Simrad multibeam vendor format
0049_20131124_071616_raw.all.mb56.gz 23.88MB Simrad multibeam vendor format
0050_20131124_081616_raw.all.mb56.gz 23.99MB Simrad multibeam vendor format
0051_20131124_091616_raw.all.mb56.gz 18.52MB Simrad multibeam vendor format
0052_20131124_101616_raw.all.mb56.gz 14.22MB Simrad multibeam vendor format
0053_20131124_111616_raw.all.mb56.gz 12.00MB Simrad multibeam vendor format
0054_20131124_121616_raw.all.mb56.gz 11.28MB Simrad multibeam vendor format
0055_20131124_131616_raw.all.mb56.gz 9.85MB Simrad multibeam vendor format
0056_20131124_141616_raw.all.mb56.gz 9.85MB Simrad multibeam vendor format
0057_20131124_151616_raw.all.mb56.gz 9.73MB Simrad multibeam vendor format
0058_20131124_161616_raw.all.mb56.gz 9.66MB Simrad multibeam vendor format
0059_20131124_171616_raw.all.mb56.gz 10.13MB Simrad multibeam vendor format
0060_20131124_181616_raw.all.mb56.gz 11.27MB Simrad multibeam vendor format
0061_20131124_191616_raw.all.mb56.gz 11.30MB Simrad multibeam vendor format
0062_20131124_201616_raw.all.mb56.gz 10.64MB Simrad multibeam vendor format
0063_20131124_211616_raw.all.mb56.gz 11.93MB Simrad multibeam vendor format
0064_20131124_221616_raw.all.mb56.gz 10.87MB Simrad multibeam vendor format
0065_20131124_231616_raw.all.mb56.gz 10.12MB Simrad multibeam vendor format
0066_20131125_001616_raw.all.mb56.gz 9.64MB Simrad multibeam vendor format
0067_20131125_011616_raw.all.mb56.gz 9.97MB Simrad multibeam vendor format
0068_20131125_021616_raw.all.mb56.gz 10.07MB Simrad multibeam vendor format
0069_20131125_031616_raw.all.mb56.gz 10.46MB Simrad multibeam vendor format
0070_20131125_041616_raw.all.mb56.gz 10.50MB Simrad multibeam vendor format
0071_20131125_051616_raw.all.mb56.gz 10.41MB Simrad multibeam vendor format
0072_20131125_061616_raw.all.mb56.gz 10.27MB Simrad multibeam vendor format
0073_20131125_071616_raw.all.mb56.gz 10.30MB Simrad multibeam vendor format
0074_20131125_081616_raw.all.mb56.gz 9.77MB Simrad multibeam vendor format
0075_20131125_091616_raw.all.mb56.gz 14.90MB Simrad multibeam vendor format
0076_20131125_101616_raw.all.mb56.gz 12.52MB Simrad multibeam vendor format
0077_20131125_111616_raw.all.mb56.gz 11.26MB Simrad multibeam vendor format
0078_20131125_121616_raw.all.mb56.gz 11.94MB Simrad multibeam vendor format
0079_20131125_131616_raw.all.mb56.gz 11.81MB Simrad multibeam vendor format
0080_20131125_141616_raw.all.mb56.gz 11.68MB Simrad multibeam vendor format
0081_20131125_151616_raw.all.mb56.gz 11.69MB Simrad multibeam vendor format
0082_20131125_161616_raw.all.mb56.gz 11.19MB Simrad multibeam vendor format
0083_20131125_171616_raw.all.mb56.gz 11.48MB Simrad multibeam vendor format
0084_20131125_181616_raw.all.mb56.gz 14.12MB Simrad multibeam vendor format
0085_20131125_191616_raw.all.mb56.gz 13.32MB Simrad multibeam vendor format
0086_20131125_201616_raw.all.mb56.gz 13.10MB Simrad multibeam vendor format
0087_20131125_211616_raw.all.mb56.gz 12.40MB Simrad multibeam vendor format
0088_20131125_221616_raw.all.mb56.gz 12.66MB Simrad multibeam vendor format
0089_20131125_231616_raw.all.mb56.gz 12.03MB Simrad multibeam vendor format
0090_20131126_001616_raw.all.mb56.gz 12.22MB Simrad multibeam vendor format
0091_20131126_011616_raw.all.mb56.gz 11.65MB Simrad multibeam vendor format
0092_20131126_021616_raw.all.mb56.gz 10.05MB Simrad multibeam vendor format
0093_20131126_031616_raw.all.mb56.gz 10.74MB Simrad multibeam vendor format
0094_20131126_041616_raw.all.mb56.gz 11.08MB Simrad multibeam vendor format
0095_20131126_051616_raw.all.mb56.gz 11.22MB Simrad multibeam vendor format
0096_20131126_061616_raw.all.mb56.gz 10.83MB Simrad multibeam vendor format
0097_20131126_071616_raw.all.mb56.gz 15.26MB Simrad multibeam vendor format
0098_20131126_081616_raw.all.mb56.gz 21.67MB Simrad multibeam vendor format
0099_20131126_091616_raw.all.mb56.gz 21.08MB Simrad multibeam vendor format
0100_20131126_101616_raw.all.mb56.gz 20.32MB Simrad multibeam vendor format
0101_20131126_111616_raw.all.mb56.gz 19.94MB Simrad multibeam vendor format
0102_20131126_121616_raw.all.mb56.gz 18.94MB Simrad multibeam vendor format
0103_20131126_131616_raw.all.mb56.gz 11.19MB Simrad multibeam vendor format
0104_20131126_141616_raw.all.mb56.gz 10.25MB Simrad multibeam vendor format
0105_20131126_151616_raw.all.mb56.gz 9.96MB Simrad multibeam vendor format
0106_20131126_161616_raw.all.mb56.gz 10.29MB Simrad multibeam vendor format
0107_20131126_171616_raw.all.mb56.gz 10.41MB Simrad multibeam vendor format
0108_20131126_181616_raw.all.mb56.gz 10.29MB Simrad multibeam vendor format
0109_20131126_191617_raw.all.mb56.gz 10.20MB Simrad multibeam vendor format
0110_20131126_201617_raw.all.mb56.gz 9.84MB Simrad multibeam vendor format
0111_20131126_211617_raw.all.mb56.gz 11.25MB Simrad multibeam vendor format
0112_20131126_221617_raw.all.mb56.gz 12.25MB Simrad multibeam vendor format
0113_20131126_231617_raw.all.mb56.gz 12.56MB Simrad multibeam vendor format
0114_20131127_001617_raw.all.mb56.gz 12.57MB Simrad multibeam vendor format
0115_20131127_011617_raw.all.mb56.gz 12.14MB Simrad multibeam vendor format
0116_20131127_021617_raw.all.mb56.gz 11.81MB Simrad multibeam vendor format
0117_20131127_031617_raw.all.mb56.gz 11.88MB Simrad multibeam vendor format
0118_20131127_041617_raw.all.mb56.gz 13.19MB Simrad multibeam vendor format
0119_20131127_051617_raw.all.mb56.gz 12.95MB Simrad multibeam vendor format
0120_20131127_061617_raw.all.mb56.gz 13.63MB Simrad multibeam vendor format
0121_20131127_071617_raw.all.mb56.gz 13.97MB Simrad multibeam vendor format
0122_20131127_081617_raw.all.mb56.gz 14.53MB Simrad multibeam vendor format
0123_20131127_091616_raw.all.mb56.gz 13.35MB Simrad multibeam vendor format
0124_20131127_101616_raw.all.mb56.gz 12.75MB Simrad multibeam vendor format
0125_20131127_111616_raw.all.mb56.gz 12.75MB Simrad multibeam vendor format
0126_20131127_121616_raw.all.mb56.gz 13.07MB Simrad multibeam vendor format
0127_20131127_131616_raw.all.mb56.gz 11.32MB Simrad multibeam vendor format
0128_20131127_141616_raw.all.mb56.gz 10.22MB Simrad multibeam vendor format
0129_20131127_151616_raw.all.mb56.gz 9.31MB Simrad multibeam vendor format
0130_20131127_161616_raw.all.mb56.gz 9.22MB Simrad multibeam vendor format
0131_20131127_171616_raw.all.mb56.gz 9.66MB Simrad multibeam vendor format
0132_20131127_181616_raw.all.mb56.gz 10.82MB Simrad multibeam vendor format
0133_20131127_191616_raw.all.mb56.gz 10.94MB Simrad multibeam vendor format
0134_20131127_201616_raw.all.mb56.gz 10.84MB Simrad multibeam vendor format
0135_20131127_211616_raw.all.mb56.gz 10.59MB Simrad multibeam vendor format
0136_20131127_221616_raw.all.mb56.gz 10.59MB Simrad multibeam vendor format
0137_20131127_231616_raw.all.mb56.gz 10.59MB Simrad multibeam vendor format
0138_20131128_001616_raw.all.mb56.gz 10.13MB Simrad multibeam vendor format
0139_20131128_011616_raw.all.mb56.gz 10.56MB Simrad multibeam vendor format
0140_20131128_021616_raw.all.mb56.gz 10.42MB Simrad multibeam vendor format
0141_20131128_031616_raw.all.mb56.gz 10.40MB Simrad multibeam vendor format
0142_20131128_041616_raw.all.mb56.gz 10.35MB Simrad multibeam vendor format
0143_20131128_051616_raw.all.mb56.gz 10.61MB Simrad multibeam vendor format
0144_20131128_061616_raw.all.mb56.gz 11.90MB Simrad multibeam vendor format
0145_20131128_071616_raw.all.mb56.gz 12.14MB Simrad multibeam vendor format
0146_20131128_081616_raw.all.mb56.gz 10.84MB Simrad multibeam vendor format
0147_20131128_091616_raw.all.mb56.gz 11.41MB Simrad multibeam vendor format
0148_20131128_101616_raw.all.mb56.gz 11.83MB Simrad multibeam vendor format
0149_20131128_111616_raw.all.mb56.gz 18.13MB Simrad multibeam vendor format
0150_20131128_121616_raw.all.mb56.gz 18.16MB Simrad multibeam vendor format
0151_20131128_131616_raw.all.mb56.gz 15.23MB Simrad multibeam vendor format
0152_20131128_141616_raw.all.mb56.gz 17.08MB Simrad multibeam vendor format
0153_20131128_151616_raw.all.mb56.gz 17.99MB Simrad multibeam vendor format
0154_20131128_161616_raw.all.mb56.gz 17.91MB Simrad multibeam vendor format
0155_20131128_171616_raw.all.mb56.gz 14.61MB Simrad multibeam vendor format
0156_20131128_181616_raw.all.mb56.gz 14.92MB Simrad multibeam vendor format
0157_20131128_191616_raw.all.mb56.gz 12.20MB Simrad multibeam vendor format
0158_20131128_201616_raw.all.mb56.gz 12.71MB Simrad multibeam vendor format
0159_20131128_211616_raw.all.mb56.gz 15.79MB Simrad multibeam vendor format
0160_20131128_221616_raw.all.mb56.gz 17.61MB Simrad multibeam vendor format
0161_20131128_231616_raw.all.mb56.gz 19.71MB Simrad multibeam vendor format
0162_20131129_001616_raw.all.mb56.gz 19.72MB Simrad multibeam vendor format
0163_20131129_011616_raw.all.mb56.gz 19.69MB Simrad multibeam vendor format
0164_20131129_021616_raw.all.mb56.gz 19.68MB Simrad multibeam vendor format
0165_20131129_031616_raw.all.mb56.gz 18.75MB Simrad multibeam vendor format
0166_20131129_041616_raw.all.mb56.gz 18.16MB Simrad multibeam vendor format
0167_20131129_051616_raw.all.mb56.gz 16.68MB Simrad multibeam vendor format
0168_20131129_061616_raw.all.mb56.gz 17.61MB Simrad multibeam vendor format
0169_20131129_071616_raw.all.mb56.gz 16.57MB Simrad multibeam vendor format
0170_20131129_081616_raw.all.mb56.gz 16.29MB Simrad multibeam vendor format
0171_20131129_091616_raw.all.mb56.gz 17.43MB Simrad multibeam vendor format
0172_20131129_101616_raw.all.mb56.gz 16.78MB Simrad multibeam vendor format
0173_20131129_111616_raw.all.mb56.gz 15.41MB Simrad multibeam vendor format
0174_20131129_121616_raw.all.mb56.gz 16.54MB Simrad multibeam vendor format
0175_20131129_131616_raw.all.mb56.gz 16.88MB Simrad multibeam vendor format
0176_20131129_141616_raw.all.mb56.gz 19.19MB Simrad multibeam vendor format
0177_20131129_151616_raw.all.mb56.gz 16.85MB Simrad multibeam vendor format
0178_20131129_161616_raw.all.mb56.gz 14.18MB Simrad multibeam vendor format
0179_20131129_171616_raw.all.mb56.gz 12.75MB Simrad multibeam vendor format
0180_20131129_181616_raw.all.mb56.gz 13.05MB Simrad multibeam vendor format
0181_20131129_191616_raw.all.mb56.gz 11.25MB Simrad multibeam vendor format
0182_20131129_201616_raw.all.mb56.gz 13.22MB Simrad multibeam vendor format
0183_20131129_211616_raw.all.mb56.gz 14.30MB Simrad multibeam vendor format
0184_20131129_221616_raw.all.mb56.gz 14.21MB Simrad multibeam vendor format
0185_20131129_231616_raw.all.mb56.gz 14.25MB Simrad multibeam vendor format
0186_20131130_001616_raw.all.mb56.gz 14.04MB Simrad multibeam vendor format
0187_20131130_011616_raw.all.mb56.gz 14.08MB Simrad multibeam vendor format
0188_20131130_021616_raw.all.mb56.gz 12.50MB Simrad multibeam vendor format
0189_20131130_031616_raw.all.mb56.gz 11.96MB Simrad multibeam vendor format
0190_20131130_041616_raw.all.mb56.gz 12.09MB Simrad multibeam vendor format
0191_20131130_051616_raw.all.mb56.gz 11.61MB Simrad multibeam vendor format
0192_20131130_061616_raw.all.mb56.gz 9.15MB Simrad multibeam vendor format
0193_20131130_071616_raw.all.mb56.gz 10.22MB Simrad multibeam vendor format
0194_20131130_081616_raw.all.mb56.gz 12.04MB Simrad multibeam vendor format
0195_20131130_091616_raw.all.mb56.gz 11.92MB Simrad multibeam vendor format
0196_20131130_101616_raw.all.mb56.gz 12.15MB Simrad multibeam vendor format
0197_20131130_111616_raw.all.mb56.gz 10.12MB Simrad multibeam vendor format
0198_20131130_121616_raw.all.mb56.gz 9.77MB Simrad multibeam vendor format
0199_20131130_131616_raw.all.mb56.gz 9.85MB Simrad multibeam vendor format
0200_20131130_141616_raw.all.mb56.gz 9.60MB Simrad multibeam vendor format
0201_20131130_151616_raw.all.mb56.gz 9.74MB Simrad multibeam vendor format
0202_20131130_161616_raw.all.mb56.gz 9.78MB Simrad multibeam vendor format
0203_20131130_171616_raw.all.mb56.gz 9.69MB Simrad multibeam vendor format
0204_20131130_181616_raw.all.mb56.gz 9.80MB Simrad multibeam vendor format
0205_20131130_191616_raw.all.mb56.gz 9.37MB Simrad multibeam vendor format
0206_20131130_201616_raw.all.mb56.gz 9.06MB Simrad multibeam vendor format
0207_20131130_211616_raw.all.mb56.gz 9.50MB Simrad multibeam vendor format
0208_20131130_221616_raw.all.mb56.gz 9.29MB Simrad multibeam vendor format
0209_20131130_231615_raw.all.mb56.gz 9.21MB Simrad multibeam vendor format
0210_20131201_001615_raw.all.mb56.gz 9.28MB Simrad multibeam vendor format
0211_20131201_011615_raw.all.mb56.gz 8.90MB Simrad multibeam vendor format
0212_20131201_021615_raw.all.mb56.gz 9.58MB Simrad multibeam vendor format
0213_20131201_031615_raw.all.mb56.gz 10.13MB Simrad multibeam vendor format
0214_20131201_041615_raw.all.mb56.gz 10.21MB Simrad multibeam vendor format
0215_20131201_051615_raw.all.mb56.gz 10.23MB Simrad multibeam vendor format
0216_20131201_061615_raw.all.mb56.gz 10.25MB Simrad multibeam vendor format
0217_20131201_071615_raw.all.mb56.gz 10.18MB Simrad multibeam vendor format
0218_20131201_081615_raw.all.mb56.gz 10.24MB Simrad multibeam vendor format
0219_20131201_091615_raw.all.mb56.gz 10.22MB Simrad multibeam vendor format
0220_20131201_101615_raw.all.mb56.gz 10.19MB Simrad multibeam vendor format
0221_20131201_111615_raw.all.mb56.gz 9.76MB Simrad multibeam vendor format
0222_20131201_121615_raw.all.mb56.gz 8.44MB Simrad multibeam vendor format
0223_20131201_131615_raw.all.mb56.gz 8.21MB Simrad multibeam vendor format
0224_20131201_141616_raw.all.mb56.gz 6.65MB Simrad multibeam vendor format
0225_20131202_044009_raw.all.mb56.gz 17.07MB Simrad multibeam vendor format
0226_20131202_054009_raw.all.mb56.gz 18.26MB Simrad multibeam vendor format
0227_20131202_064009_raw.all.mb56.gz 17.14MB Simrad multibeam vendor format
0228_20131202_074009_raw.all.mb56.gz 16.11MB Simrad multibeam vendor format
0229_20131202_084009_raw.all.mb56.gz 16.48MB Simrad multibeam vendor format
0230_20131202_094009_raw.all.mb56.gz 16.00MB Simrad multibeam vendor format
0231_20131202_104009_raw.all.mb56.gz 16.10MB Simrad multibeam vendor format
0232_20131202_114009_raw.all.mb56.gz 15.46MB Simrad multibeam vendor format
0233_20131202_124009_raw.all.mb56.gz 14.80MB Simrad multibeam vendor format
0234_20131202_134009_raw.all.mb56.gz 16.41MB Simrad multibeam vendor format
0235_20131202_144009_raw.all.mb56.gz 15.59MB Simrad multibeam vendor format
0236_20131202_154009_raw.all.mb56.gz 17.69MB Simrad multibeam vendor format
0237_20131202_164009_raw.all.mb56.gz 16.80MB Simrad multibeam vendor format
0238_20131202_174009_raw.all.mb56.gz 15.88MB Simrad multibeam vendor format
0239_20131202_184009_raw.all.mb56.gz 15.74MB Simrad multibeam vendor format
0240_20131202_194009_raw.all.mb56.gz 15.55MB Simrad multibeam vendor format
0241_20131202_204009_raw.all.mb56.gz 14.97MB Simrad multibeam vendor format
0242_20131202_214009_raw.all.mb56.gz 16.18MB Simrad multibeam vendor format
0243_20131202_224009_raw.all.mb56.gz 16.22MB Simrad multibeam vendor format
0244_20131202_234009_raw.all.mb56.gz 15.59MB Simrad multibeam vendor format
0245_20131203_004009_raw.all.mb56.gz 15.76MB Simrad multibeam vendor format
0246_20131203_014009_raw.all.mb56.gz 11.29MB Simrad multibeam vendor format
0247_20131204_083807_raw.all.mb56.gz 8.51MB Simrad multibeam vendor format
0248_20131205_003525_raw.all.mb56.gz 1.76MB Simrad multibeam vendor format
0249_20131205_004822_raw.all.mb56.gz 8.25MB Simrad multibeam vendor format
0250_20131205_014822_raw.all.mb56.gz 8.34MB Simrad multibeam vendor format
0251_20131205_024822_raw.all.mb56.gz 8.44MB Simrad multibeam vendor format
0252_20131205_034822_raw.all.mb56.gz 8.48MB Simrad multibeam vendor format
0253_20131205_044822_raw.all.mb56.gz 8.68MB Simrad multibeam vendor format
0254_20131205_054822_raw.all.mb56.gz 8.88MB Simrad multibeam vendor format
0255_20131205_064821_raw.all.mb56.gz 8.66MB Simrad multibeam vendor format
0256_20131205_074821_raw.all.mb56.gz 8.65MB Simrad multibeam vendor format
0257_20131205_084821_raw.all.mb56.gz 8.48MB Simrad multibeam vendor format
0258_20131205_094821_raw.all.mb56.gz 8.58MB Simrad multibeam vendor format
0259_20131205_104821_raw.all.mb56.gz 8.43MB Simrad multibeam vendor format
0260_20131205_114821_raw.all.mb56.gz 8.70MB Simrad multibeam vendor format
0261_20131205_124821_raw.all.mb56.gz 8.66MB Simrad multibeam vendor format
0262_20131205_134821_raw.all.mb56.gz 8.73MB Simrad multibeam vendor format
0263_20131205_144821_raw.all.mb56.gz 8.86MB Simrad multibeam vendor format
0264_20131205_154821_raw.all.mb56.gz 8.83MB Simrad multibeam vendor format
0265_20131205_164821_raw.all.mb56.gz 8.69MB Simrad multibeam vendor format
0266_20131205_174821_raw.all.mb56.gz 8.64MB Simrad multibeam vendor format
0267_20131205_184821_raw.all.mb56.gz 8.50MB Simrad multibeam vendor format
0268_20131205_194821_raw.all.mb56.gz 8.65MB Simrad multibeam vendor format
0269_20131205_204821_raw.all.mb56.gz 8.55MB Simrad multibeam vendor format
0270_20131205_214821_raw.all.mb56.gz 8.59MB Simrad multibeam vendor format
0271_20131205_224821_raw.all.mb56.gz 8.49MB Simrad multibeam vendor format
0272_20131205_234821_raw.all.mb56.gz 8.44MB Simrad multibeam vendor format
0273_20131206_004821_raw.all.mb56.gz 8.18MB Simrad multibeam vendor format
0274_20131206_014821_raw.all.mb56.gz 8.45MB Simrad multibeam vendor format
0275_20131206_024821_raw.all.mb56.gz 8.42MB Simrad multibeam vendor format
0276_20131206_034821_raw.all.mb56.gz 8.46MB Simrad multibeam vendor format
0277_20131206_044821_raw.all.mb56.gz 8.40MB Simrad multibeam vendor format
0278_20131206_054821_raw.all.mb56.gz 8.52MB Simrad multibeam vendor format
0279_20131206_064821_raw.all.mb56.gz 8.48MB Simrad multibeam vendor format
0280_20131206_074821_raw.all.mb56.gz 8.45MB Simrad multibeam vendor format
0281_20131206_084821_raw.all.mb56.gz 8.40MB Simrad multibeam vendor format
0282_20131206_094821_raw.all.mb56.gz 8.29MB Simrad multibeam vendor format
0283_20131206_104821_raw.all.mb56.gz 8.33MB Simrad multibeam vendor format
0284_20131206_114821_raw.all.mb56.gz 8.52MB Simrad multibeam vendor format
0285_20131206_124821_raw.all.mb56.gz 8.64MB Simrad multibeam vendor format
0286_20131206_134821_raw.all.mb56.gz 8.66MB Simrad multibeam vendor format
0287_20131206_144821_raw.all.mb56.gz 8.56MB Simrad multibeam vendor format
0288_20131206_154821_raw.all.mb56.gz 8.46MB Simrad multibeam vendor format
0289_20131206_164821_raw.all.mb56.gz 8.41MB Simrad multibeam vendor format
0290_20131206_174821_raw.all.mb56.gz 8.45MB Simrad multibeam vendor format
0291_20131206_184821_raw.all.mb56.gz 8.40MB Simrad multibeam vendor format
0292_20131206_194821_raw.all.mb56.gz 8.43MB Simrad multibeam vendor format
0293_20131206_204821_raw.all.mb56.gz 8.45MB Simrad multibeam vendor format
0294_20131206_214821_raw.all.mb56.gz 8.41MB Simrad multibeam vendor format
0295_20131206_224821_raw.all.mb56.gz 8.46MB Simrad multibeam vendor format
0296_20131206_234821_raw.all.mb56.gz 8.47MB Simrad multibeam vendor format
0297_20131207_004821_raw.all.mb56.gz 8.54MB Simrad multibeam vendor format
0298_20131207_014821_raw.all.mb56.gz 8.47MB Simrad multibeam vendor format
0299_20131207_024821_raw.all.mb56.gz 8.45MB Simrad multibeam vendor format
0300_20131207_034821_raw.all.mb56.gz 8.53MB Simrad multibeam vendor format
0301_20131207_044821_raw.all.mb56.gz 8.57MB Simrad multibeam vendor format
0302_20131207_054821_raw.all.mb56.gz 8.71MB Simrad multibeam vendor format
0303_20131207_064821_raw.all.mb56.gz 8.65MB Simrad multibeam vendor format
0304_20131207_074821_raw.all.mb56.gz 8.54MB Simrad multibeam vendor format
0305_20131207_084821_raw.all.mb56.gz 8.75MB Simrad multibeam vendor format
0306_20131207_094821_raw.all.mb56.gz 8.63MB Simrad multibeam vendor format
0307_20131207_104821_raw.all.mb56.gz 8.62MB Simrad multibeam vendor format
0308_20131207_114821_raw.all.mb56.gz 8.54MB Simrad multibeam vendor format
0309_20131207_124821_raw.all.mb56.gz 8.50MB Simrad multibeam vendor format
0310_20131207_134821_raw.all.mb56.gz 8.69MB Simrad multibeam vendor format
0311_20131207_144821_raw.all.mb56.gz 8.70MB Simrad multibeam vendor format
0312_20131207_154821_raw.all.mb56.gz 8.64MB Simrad multibeam vendor format
0313_20131207_164821_raw.all.mb56.gz 8.73MB Simrad multibeam vendor format
0314_20131207_174821_raw.all.mb56.gz 8.56MB Simrad multibeam vendor format
0315_20131207_184821_raw.all.mb56.gz 8.94MB Simrad multibeam vendor format
0316_20131207_194821_raw.all.mb56.gz 9.22MB Simrad multibeam vendor format
0317_20131207_204821_raw.all.mb56.gz 8.49MB Simrad multibeam vendor format
0318_20131207_214821_raw.all.mb56.gz 8.07MB Simrad multibeam vendor format
0319_20131207_224821_raw.all.mb56.gz 8.44MB Simrad multibeam vendor format
0320_20131207_234821_raw.all.mb56.gz 8.41MB Simrad multibeam vendor format
0321_20131208_004821_raw.all.mb56.gz 8.29MB Simrad multibeam vendor format
0322_20131208_014821_raw.all.mb56.gz 8.16MB Simrad multibeam vendor format
0323_20131208_024821_raw.all.mb56.gz 8.22MB Simrad multibeam vendor format
0324_20131208_034821_raw.all.mb56.gz 8.28MB Simrad multibeam vendor format
0325_20131208_044821_raw.all.mb56.gz 8.42MB Simrad multibeam vendor format
0326_20131208_054821_raw.all.mb56.gz 8.36MB Simrad multibeam vendor format
0327_20131208_064821_raw.all.mb56.gz 8.38MB Simrad multibeam vendor format
0328_20131208_074821_raw.all.mb56.gz 8.39MB Simrad multibeam vendor format
0329_20131208_084821_raw.all.mb56.gz 8.31MB Simrad multibeam vendor format
0330_20131208_094820_raw.all.mb56.gz 8.27MB Simrad multibeam vendor format
0331_20131208_104820_raw.all.mb56.gz 8.32MB Simrad multibeam vendor format
0332_20131208_114820_raw.all.mb56.gz 8.29MB Simrad multibeam vendor format
0333_20131208_124820_raw.all.mb56.gz 8.28MB Simrad multibeam vendor format
0334_20131208_134820_raw.all.mb56.gz 8.51MB Simrad multibeam vendor format
0335_20131208_144820_raw.all.mb56.gz 8.56MB Simrad multibeam vendor format
0336_20131208_154820_raw.all.mb56.gz 8.33MB Simrad multibeam vendor format
0337_20131208_164820_raw.all.mb56.gz 8.31MB Simrad multibeam vendor format
0338_20131208_174820_raw.all.mb56.gz 8.29MB Simrad multibeam vendor format
0339_20131208_184820_raw.all.mb56.gz 8.26MB Simrad multibeam vendor format
0340_20131208_194820_raw.all.mb56.gz 8.34MB Simrad multibeam vendor format
0341_20131208_204820_raw.all.mb56.gz 8.28MB Simrad multibeam vendor format
0342_20131208_214820_raw.all.mb56.gz 8.28MB Simrad multibeam vendor format
0343_20131208_224820_raw.all.mb56.gz 8.23MB Simrad multibeam vendor format
0344_20131208_234820_raw.all.mb56.gz 8.23MB Simrad multibeam vendor format
0345_20131209_004820_raw.all.mb56.gz 8.31MB Simrad multibeam vendor format
0346_20131209_014820_raw.all.mb56.gz 8.27MB Simrad multibeam vendor format
0347_20131209_024820_raw.all.mb56.gz 8.25MB Simrad multibeam vendor format
0348_20131209_034820_raw.all.mb56.gz 8.28MB Simrad multibeam vendor format
0349_20131209_044820_raw.all.mb56.gz 8.20MB Simrad multibeam vendor format
0350_20131209_054820_raw.all.mb56.gz 8.22MB Simrad multibeam vendor format
0351_20131209_064820_raw.all.mb56.gz 8.26MB Simrad multibeam vendor format
0352_20131209_074820_raw.all.mb56.gz 8.17MB Simrad multibeam vendor format
0353_20131209_084820_raw.all.mb56.gz 8.22MB Simrad multibeam vendor format
0354_20131209_094820_raw.all.mb56.gz 8.25MB Simrad multibeam vendor format
0355_20131209_104820_raw.all.mb56.gz 8.27MB Simrad multibeam vendor format
0356_20131209_114820_raw.all.mb56.gz 8.23MB Simrad multibeam vendor format
0357_20131209_124820_raw.all.mb56.gz 8.23MB Simrad multibeam vendor format
0358_20131209_134820_raw.all.mb56.gz 8.26MB Simrad multibeam vendor format
0359_20131209_144820_raw.all.mb56.gz 8.59MB Simrad multibeam vendor format
0360_20131209_154820_raw.all.mb56.gz 8.34MB Simrad multibeam vendor format
0361_20131209_164820_raw.all.mb56.gz 8.29MB Simrad multibeam vendor format
0362_20131209_174820_raw.all.mb56.gz 8.26MB Simrad multibeam vendor format
0363_20131209_184820_raw.all.mb56.gz 8.32MB Simrad multibeam vendor format
0364_20131209_194820_raw.all.mb56.gz 8.22MB Simrad multibeam vendor format
0365_20131209_204820_raw.all.mb56.gz 8.10MB Simrad multibeam vendor format
0366_20131209_214820_raw.all.mb56.gz 8.29MB Simrad multibeam vendor format
0367_20131209_224820_raw.all.mb56.gz 8.08MB Simrad multibeam vendor format
0368_20131209_234820_raw.all.mb56.gz 8.18MB Simrad multibeam vendor format
0369_20131210_004820_raw.all.mb56.gz 8.21MB Simrad multibeam vendor format
0370_20131210_014820_raw.all.mb56.gz 8.20MB Simrad multibeam vendor format
0371_20131210_024820_raw.all.mb56.gz 8.24MB Simrad multibeam vendor format
0372_20131210_034820_raw.all.mb56.gz 8.18MB Simrad multibeam vendor format
0373_20131210_044820_raw.all.mb56.gz 8.18MB Simrad multibeam vendor format
0374_20131210_054820_raw.all.mb56.gz 8.16MB Simrad multibeam vendor format
0375_20131210_064820_raw.all.mb56.gz 8.19MB Simrad multibeam vendor format
0376_20131210_074820_raw.all.mb56.gz 8.09MB Simrad multibeam vendor format
0377_20131210_084820_raw.all.mb56.gz 8.10MB Simrad multibeam vendor format
0378_20131210_094820_raw.all.mb56.gz 8.18MB Simrad multibeam vendor format
0379_20131210_104820_raw.all.mb56.gz 8.22MB Simrad multibeam vendor format
0380_20131210_114820_raw.all.mb56.gz 8.26MB Simrad multibeam vendor format
0381_20131210_124820_raw.all.mb56.gz 8.18MB Simrad multibeam vendor format
0382_20131210_134820_raw.all.mb56.gz 8.19MB Simrad multibeam vendor format
0383_20131210_144820_raw.all.mb56.gz 8.52MB Simrad multibeam vendor format
0384_20131210_154820_raw.all.mb56.gz 8.31MB Simrad multibeam vendor format
0385_20131210_164820_raw.all.mb56.gz 8.21MB Simrad multibeam vendor format
0386_20131210_174821_raw.all.mb56.gz 8.12MB Simrad multibeam vendor format
0387_20131210_184821_raw.all.mb56.gz 8.18MB Simrad multibeam vendor format
0388_20131210_194821_raw.all.mb56.gz 8.13MB Simrad multibeam vendor format
0389_20131210_204822_raw.all.mb56.gz 8.22MB Simrad multibeam vendor format
0390_20131210_214822_raw.all.mb56.gz 8.13MB Simrad multibeam vendor format
0391_20131210_224822_raw.all.mb56.gz 8.20MB Simrad multibeam vendor format
0392_20131210_234822_raw.all.mb56.gz 8.16MB Simrad multibeam vendor format
0393_20131211_004822_raw.all.mb56.gz 8.19MB Simrad multibeam vendor format
0394_20131211_014823_raw.all.mb56.gz 8.12MB Simrad multibeam vendor format
0395_20131211_024823_raw.all.mb56.gz 8.14MB Simrad multibeam vendor format
0396_20131211_034823_raw.all.mb56.gz 8.18MB Simrad multibeam vendor format
0397_20131211_044823_raw.all.mb56.gz 8.25MB Simrad multibeam vendor format
0398_20131211_054823_raw.all.mb56.gz 8.29MB Simrad multibeam vendor format
0399_20131211_064824_raw.all.mb56.gz 8.52MB Simrad multibeam vendor format
0400_20131211_074824_raw.all.mb56.gz 8.48MB Simrad multibeam vendor format
0401_20131211_084823_raw.all.mb56.gz 8.39MB Simrad multibeam vendor format
0402_20131211_094823_raw.all.mb56.gz 8.44MB Simrad multibeam vendor format
0403_20131211_104823_raw.all.mb56.gz 8.39MB Simrad multibeam vendor format
0404_20131211_114823_raw.all.mb56.gz 8.34MB Simrad multibeam vendor format
0405_20131211_124823_raw.all.mb56.gz 8.21MB Simrad multibeam vendor format
0406_20131211_134823_raw.all.mb56.gz 8.21MB Simrad multibeam vendor format
0407_20131211_144823_raw.all.mb56.gz 8.23MB Simrad multibeam vendor format
0408_20131211_154823_raw.all.mb56.gz 8.45MB Simrad multibeam vendor format
0409_20131211_164823_raw.all.mb56.gz 8.53MB Simrad multibeam vendor format
0410_20131211_174823_raw.all.mb56.gz 8.32MB Simrad multibeam vendor format
0411_20131211_184823_raw.all.mb56.gz 8.22MB Simrad multibeam vendor format
0412_20131211_194823_raw.all.mb56.gz 8.32MB Simrad multibeam vendor format
0413_20131211_204823_raw.all.mb56.gz 8.32MB Simrad multibeam vendor format
0414_20131211_214823_raw.all.mb56.gz 8.30MB Simrad multibeam vendor format
0415_20131211_224823_raw.all.mb56.gz 8.44MB Simrad multibeam vendor format
0416_20131211_234823_raw.all.mb56.gz 8.43MB Simrad multibeam vendor format
0417_20131212_004823_raw.all.mb56.gz 8.43MB Simrad multibeam vendor format
0418_20131212_014823_raw.all.mb56.gz 8.33MB Simrad multibeam vendor format
0419_20131212_024823_raw.all.mb56.gz 8.36MB Simrad multibeam vendor format
0420_20131212_034823_raw.all.mb56.gz 8.35MB Simrad multibeam vendor format
0421_20131212_044823_raw.all.mb56.gz 8.36MB Simrad multibeam vendor format
0422_20131212_054823_raw.all.mb56.gz 8.41MB Simrad multibeam vendor format
0423_20131212_064823_raw.all.mb56.gz 8.49MB Simrad multibeam vendor format
0424_20131212_074823_raw.all.mb56.gz 8.33MB Simrad multibeam vendor format
0425_20131212_084823_raw.all.mb56.gz 8.18MB Simrad multibeam vendor format
0426_20131212_094823_raw.all.mb56.gz 8.24MB Simrad multibeam vendor format
0427_20131212_104823_raw.all.mb56.gz 8.20MB Simrad multibeam vendor format
0428_20131212_114823_raw.all.mb56.gz 8.22MB Simrad multibeam vendor format
0429_20131212_124823_raw.all.mb56.gz 8.16MB Simrad multibeam vendor format
0430_20131212_134823_raw.all.mb56.gz 8.14MB Simrad multibeam vendor format
0431_20131212_144823_raw.all.mb56.gz 8.04MB Simrad multibeam vendor format
0432_20131212_154823_raw.all.mb56.gz 7.99MB Simrad multibeam vendor format
0433_20131212_164823_raw.all.mb56.gz 8.50MB Simrad multibeam vendor format
0434_20131212_174823_raw.all.mb56.gz 8.43MB Simrad multibeam vendor format
0435_20131212_184823_raw.all.mb56.gz 8.19MB Simrad multibeam vendor format
0436_20131212_194823_raw.all.mb56.gz 8.22MB Simrad multibeam vendor format
0437_20131212_204823_raw.all.mb56.gz 8.22MB Simrad multibeam vendor format
0438_20131212_214823_raw.all.mb56.gz 8.20MB Simrad multibeam vendor format
0439_20131212_224823_raw.all.mb56.gz 8.22MB Simrad multibeam vendor format
0440_20131212_234823_raw.all.mb56.gz 8.19MB Simrad multibeam vendor format
0441_20131213_004823_raw.all.mb56.gz 8.29MB Simrad multibeam vendor format
0442_20131213_014823_raw.all.mb56.gz 8.37MB Simrad multibeam vendor format
0443_20131213_024823_raw.all.mb56.gz 8.29MB Simrad multibeam vendor format
0444_20131213_034823_raw.all.mb56.gz 8.47MB Simrad multibeam vendor format
0445_20131213_044823_raw.all.mb56.gz 8.46MB Simrad multibeam vendor format
0446_20131213_054823_raw.all.mb56.gz 8.47MB Simrad multibeam vendor format
0447_20131213_064823_raw.all.mb56.gz 8.58MB Simrad multibeam vendor format
0448_20131213_074823_raw.all.mb56.gz 8.57MB Simrad multibeam vendor format
0449_20131213_084823_raw.all.mb56.gz 8.75MB Simrad multibeam vendor format
0450_20131213_094823_raw.all.mb56.gz 8.65MB Simrad multibeam vendor format
0451_20131213_104823_raw.all.mb56.gz 8.57MB Simrad multibeam vendor format
0452_20131213_114823_raw.all.mb56.gz 8.57MB Simrad multibeam vendor format
0453_20131213_124823_raw.all.mb56.gz 8.74MB Simrad multibeam vendor format
0454_20131213_134823_raw.all.mb56.gz 7.98MB Simrad multibeam vendor format
0455_20131213_144823_raw.all.mb56.gz 8.35MB Simrad multibeam vendor format
0456_20131213_154823_raw.all.mb56.gz 8.41MB Simrad multibeam vendor format
0457_20131213_164823_raw.all.mb56.gz 8.25MB Simrad multibeam vendor format
0458_20131213_174823_raw.all.mb56.gz 4.46MB Simrad multibeam vendor format
0459_20131213_182739_raw.all.mb56.gz 8.63MB Simrad multibeam vendor format
0460_20131213_192739_raw.all.mb56.gz 8.66MB Simrad multibeam vendor format
0461_20131213_202739_raw.all.mb56.gz 8.60MB Simrad multibeam vendor format
0462_20131213_212739_raw.all.mb56.gz 8.71MB Simrad multibeam vendor format
0463_20131213_222739_raw.all.mb56.gz 8.70MB Simrad multibeam vendor format
0464_20131213_232739_raw.all.mb56.gz 8.55MB Simrad multibeam vendor format
0465_20131214_002739_raw.all.mb56.gz 8.73MB Simrad multibeam vendor format
0466_20131214_012739_raw.all.mb56.gz 8.69MB Simrad multibeam vendor format
0467_20131214_022739_raw.all.mb56.gz 8.54MB Simrad multibeam vendor format
0468_20131214_032739_raw.all.mb56.gz 8.74MB Simrad multibeam vendor format
0469_20131214_042739_raw.all.mb56.gz 8.65MB Simrad multibeam vendor format
0470_20131214_052739_raw.all.mb56.gz 8.33MB Simrad multibeam vendor format
0471_20131214_062739_raw.all.mb56.gz 8.46MB Simrad multibeam vendor format
0472_20131214_072739_raw.all.mb56.gz 8.86MB Simrad multibeam vendor format
0473_20131214_082739_raw.all.mb56.gz 8.57MB Simrad multibeam vendor format
0474_20131214_092739_raw.all.mb56.gz 8.49MB Simrad multibeam vendor format
0475_20131214_102739_raw.all.mb56.gz 8.48MB Simrad multibeam vendor format
0476_20131214_112739_raw.all.mb56.gz 8.66MB Simrad multibeam vendor format
0477_20131214_122739_raw.all.mb56.gz 8.60MB Simrad multibeam vendor format
0478_20131214_132739_raw.all.mb56.gz 8.18MB Simrad multibeam vendor format
0479_20131214_142739_raw.all.mb56.gz 8.32MB Simrad multibeam vendor format
0480_20131214_152739_raw.all.mb56.gz 8.52MB Simrad multibeam vendor format
0481_20131214_162739_raw.all.mb56.gz 8.79MB Simrad multibeam vendor format
0482_20131214_172739_raw.all.mb56.gz 6.95MB Simrad multibeam vendor format
0483_20131214_182739_raw.all.mb56.gz 6.79MB Simrad multibeam vendor format
0484_20131214_192740_raw.all.mb56.gz 8.59MB Simrad multibeam vendor format
0485_20131214_202740_raw.all.mb56.gz 8.83MB Simrad multibeam vendor format
0486_20131214_212740_raw.all.mb56.gz 8.86MB Simrad multibeam vendor format
0487_20131214_222740_raw.all.mb56.gz 8.45MB Simrad multibeam vendor format
0488_20131214_232740_raw.all.mb56.gz 2.31MB Simrad multibeam vendor format
0489_20131214_234735_raw.all.mb56.gz 8.45MB Simrad multibeam vendor format
0490_20131215_004736_raw.all.mb56.gz 8.54MB Simrad multibeam vendor format
0491_20131215_014736_raw.all.mb56.gz 8.86MB Simrad multibeam vendor format
0492_20131215_024735_raw.all.mb56.gz 8.89MB Simrad multibeam vendor format
0493_20131215_034735_raw.all.mb56.gz 8.82MB Simrad multibeam vendor format
0494_20131215_044735_raw.all.mb56.gz 8.94MB Simrad multibeam vendor format
0495_20131215_054735_raw.all.mb56.gz 8.96MB Simrad multibeam vendor format
0496_20131215_064735_raw.all.mb56.gz 8.80MB Simrad multibeam vendor format
0497_20131215_074735_raw.all.mb56.gz 8.75MB Simrad multibeam vendor format
0498_20131215_084735_raw.all.mb56.gz 8.62MB Simrad multibeam vendor format
0499_20131215_094735_raw.all.mb56.gz 8.78MB Simrad multibeam vendor format
0500_20131215_104735_raw.all.mb56.gz 8.95MB Simrad multibeam vendor format
0501_20131215_114735_raw.all.mb56.gz 8.95MB Simrad multibeam vendor format
0502_20131215_124735_raw.all.mb56.gz 8.80MB Simrad multibeam vendor format
0503_20131215_134735_raw.all.mb56.gz 8.63MB Simrad multibeam vendor format
0504_20131215_144735_raw.all.mb56.gz 8.85MB Simrad multibeam vendor format
0505_20131215_154735_raw.all.mb56.gz 8.51MB Simrad multibeam vendor format
0506_20131215_164735_raw.all.mb56.gz 4.35MB Simrad multibeam vendor format
0507_20131216_032058_raw.all.mb56.gz 8.86MB Simrad multibeam vendor format
0508_20131216_042058_raw.all.mb56.gz 8.86MB Simrad multibeam vendor format
0509_20131216_052058_raw.all.mb56.gz 8.85MB Simrad multibeam vendor format
0510_20131216_062058_raw.all.mb56.gz 8.87MB Simrad multibeam vendor format
0511_20131216_072058_raw.all.mb56.gz 8.86MB Simrad multibeam vendor format
0512_20131216_082058_raw.all.mb56.gz 8.88MB Simrad multibeam vendor format
0513_20131216_092058_raw.all.mb56.gz 8.82MB Simrad multibeam vendor format
0514_20131216_102058_raw.all.mb56.gz 8.83MB Simrad multibeam vendor format
0515_20131216_112058_raw.all.mb56.gz 8.80MB Simrad multibeam vendor format
0516_20131216_122058_raw.all.mb56.gz 8.64MB Simrad multibeam vendor format
0517_20131216_132058_raw.all.mb56.gz 8.81MB Simrad multibeam vendor format
0518_20131216_142058_raw.all.mb56.gz 8.80MB Simrad multibeam vendor format
0519_20131216_152058_raw.all.mb56.gz 8.56MB Simrad multibeam vendor format
0520_20131216_162058_raw.all.mb56.gz 8.81MB Simrad multibeam vendor format
0521_20131216_172058_raw.all.mb56.gz 8.61MB Simrad multibeam vendor format
0522_20131216_182058_raw.all.mb56.gz 8.67MB Simrad multibeam vendor format
0523_20131216_192058_raw.all.mb56.gz 8.25MB Simrad multibeam vendor format
0524_20131216_202058_raw.all.mb56.gz 0.51MB Simrad multibeam vendor format
0524_20131216_202524_raw.all.mb56.gz 8.88MB Simrad multibeam vendor format
0525_20131216_212524_raw.all.mb56.gz 8.90MB Simrad multibeam vendor format
0526_20131216_222524_raw.all.mb56.gz 8.85MB Simrad multibeam vendor format
0527_20131216_232524_raw.all.mb56.gz 8.82MB Simrad multibeam vendor format
0528_20131217_002524_raw.all.mb56.gz 8.89MB Simrad multibeam vendor format
0529_20131217_012524_raw.all.mb56.gz 8.87MB Simrad multibeam vendor format
0530_20131217_022524_raw.all.mb56.gz 8.90MB Simrad multibeam vendor format
0531_20131217_032524_raw.all.mb56.gz 8.84MB Simrad multibeam vendor format
0532_20131217_042524_raw.all.mb56.gz 8.85MB Simrad multibeam vendor format
0533_20131217_052524_raw.all.mb56.gz 8.89MB Simrad multibeam vendor format
0534_20131217_062524_raw.all.mb56.gz 8.85MB Simrad multibeam vendor format
0535_20131217_072524_raw.all.mb56.gz 8.91MB Simrad multibeam vendor format
0536_20131217_082524_raw.all.mb56.gz 8.95MB Simrad multibeam vendor format
0537_20131217_092524_raw.all.mb56.gz 8.90MB Simrad multibeam vendor format
0538_20131217_102524_raw.all.mb56.gz 8.92MB Simrad multibeam vendor format
0539_20131217_112524_raw.all.mb56.gz 8.89MB Simrad multibeam vendor format
0540_20131217_122524_raw.all.mb56.gz 8.86MB Simrad multibeam vendor format
0541_20131217_132524_raw.all.mb56.gz 8.96MB Simrad multibeam vendor format
0542_20131217_142524_raw.all.mb56.gz 8.89MB Simrad multibeam vendor format
0543_20131217_152524_raw.all.mb56.gz 8.68MB Simrad multibeam vendor format
0544_20131217_162524_raw.all.mb56.gz 8.78MB Simrad multibeam vendor format
0545_20131217_172524_raw.all.mb56.gz 8.85MB Simrad multibeam vendor format
0546_20131217_182524_raw.all.mb56.gz 8.81MB Simrad multibeam vendor format
0547_20131217_192525_raw.all.mb56.gz 9.00MB Simrad multibeam vendor format
0548_20131217_202525_raw.all.mb56.gz 8.81MB Simrad multibeam vendor format
0549_20131217_212525_raw.all.mb56.gz 8.78MB Simrad multibeam vendor format
0550_20131217_222525_raw.all.mb56.gz 8.81MB Simrad multibeam vendor format
0551_20131217_232525_raw.all.mb56.gz 8.84MB Simrad multibeam vendor format
0552_20131218_002526_raw.all.mb56.gz 8.74MB Simrad multibeam vendor format
0553_20131218_012526_raw.all.mb56.gz 8.81MB Simrad multibeam vendor format
0554_20131218_022526_raw.all.mb56.gz 8.34MB Simrad multibeam vendor format
0555_20131218_032526_raw.all.mb56.gz 8.69MB Simrad multibeam vendor format
0556_20131218_042526_raw.all.mb56.gz 8.63MB Simrad multibeam vendor format
0557_20131218_052527_raw.all.mb56.gz 8.79MB Simrad multibeam vendor format
0558_20131218_062527_raw.all.mb56.gz 8.78MB Simrad multibeam vendor format
0559_20131218_072527_raw.all.mb56.gz 8.80MB Simrad multibeam vendor format
0560_20131218_082527_raw.all.mb56.gz 8.84MB Simrad multibeam vendor format
0561_20131218_092527_raw.all.mb56.gz 8.81MB Simrad multibeam vendor format
0562_20131218_102527_raw.all.mb56.gz 8.71MB Simrad multibeam vendor format
0563_20131218_112527_raw.all.mb56.gz 8.72MB Simrad multibeam vendor format
0564_20131218_122527_raw.all.mb56.gz 8.74MB Simrad multibeam vendor format
0565_20131218_132527_raw.all.mb56.gz 8.67MB Simrad multibeam vendor format
0566_20131218_142527_raw.all.mb56.gz 8.90MB Simrad multibeam vendor format
0567_20131218_152527_raw.all.mb56.gz 8.83MB Simrad multibeam vendor format
0568_20131218_162527_raw.all.mb56.gz 8.82MB Simrad multibeam vendor format
0569_20131218_172527_raw.all.mb56.gz 8.77MB Simrad multibeam vendor format
0570_20131218_182527_raw.all.mb56.gz 8.87MB Simrad multibeam vendor format
0571_20131218_192527_raw.all.mb56.gz 8.84MB Simrad multibeam vendor format
0572_20131218_202527_raw.all.mb56.gz 8.75MB Simrad multibeam vendor format
0573_20131218_212527_raw.all.mb56.gz 8.68MB Simrad multibeam vendor format
0574_20131218_222527_raw.all.mb56.gz 8.65MB Simrad multibeam vendor format
0575_20131218_232527_raw.all.mb56.gz 8.61MB Simrad multibeam vendor format
0576_20131219_002527_raw.all.mb56.gz 8.82MB Simrad multibeam vendor format
0577_20131219_012527_raw.all.mb56.gz 8.67MB Simrad multibeam vendor format
0578_20131219_022527_raw.all.mb56.gz 8.80MB Simrad multibeam vendor format
0579_20131219_032526_raw.all.mb56.gz 8.91MB Simrad multibeam vendor format
0580_20131219_042526_raw.all.mb56.gz 8.44MB Simrad multibeam vendor format
0581_20131219_052526_raw.all.mb56.gz 8.75MB Simrad multibeam vendor format
0582_20131219_062526_raw.all.mb56.gz 8.64MB Simrad multibeam vendor format
0583_20131219_072526_raw.all.mb56.gz 8.83MB Simrad multibeam vendor format
0584_20131219_082526_raw.all.mb56.gz 9.01MB Simrad multibeam vendor format
0585_20131219_092526_raw.all.mb56.gz 9.08MB Simrad multibeam vendor format
0586_20131219_102526_raw.all.mb56.gz 9.07MB Simrad multibeam vendor format
0587_20131219_112526_raw.all.mb56.gz 8.86MB Simrad multibeam vendor format
0588_20131219_122526_raw.all.mb56.gz 8.67MB Simrad multibeam vendor format
0589_20131219_132526_raw.all.mb56.gz 9.19MB Simrad multibeam vendor format
0590_20131219_142526_raw.all.mb56.gz 8.71MB Simrad multibeam vendor format
0591_20131219_152526_raw.all.mb56.gz 8.85MB Simrad multibeam vendor format
0592_20131219_162526_raw.all.mb56.gz 8.48MB Simrad multibeam vendor format
0593_20131219_172526_raw.all.mb56.gz 8.59MB Simrad multibeam vendor format
0594_20131219_182526_raw.all.mb56.gz 9.21MB Simrad multibeam vendor format
0595_20131219_192526_raw.all.mb56.gz 9.16MB Simrad multibeam vendor format
0596_20131219_202526_raw.all.mb56.gz 8.84MB Simrad multibeam vendor format
0597_20131219_212526_raw.all.mb56.gz 8.70MB Simrad multibeam vendor format
0598_20131219_222526_raw.all.mb56.gz 8.23MB Simrad multibeam vendor format
0599_20131219_232526_raw.all.mb56.gz 8.60MB Simrad multibeam vendor format
0600_20131220_002526_raw.all.mb56.gz 8.60MB Simrad multibeam vendor format
0601_20131220_012526_raw.all.mb56.gz 8.46MB Simrad multibeam vendor format
0602_20131220_022526_raw.all.mb56.gz 8.85MB Simrad multibeam vendor format
0603_20131220_032526_raw.all.mb56.gz 8.44MB Simrad multibeam vendor format
0604_20131220_042526_raw.all.mb56.gz 8.54MB Simrad multibeam vendor format
0605_20131220_052526_raw.all.mb56.gz 8.66MB Simrad multibeam vendor format
0606_20131220_062526_raw.all.mb56.gz 8.73MB Simrad multibeam vendor format
0607_20131220_072526_raw.all.mb56.gz 8.45MB Simrad multibeam vendor format
0608_20131220_082526_raw.all.mb56.gz 8.32MB Simrad multibeam vendor format
0609_20131220_092526_raw.all.mb56.gz 8.11MB Simrad multibeam vendor format
0610_20131220_102526_raw.all.mb56.gz 8.15MB Simrad multibeam vendor format
0611_20131220_112526_raw.all.mb56.gz 8.18MB Simrad multibeam vendor format
0612_20131220_122526_raw.all.mb56.gz 8.07MB Simrad multibeam vendor format
0613_20131220_132526_raw.all.mb56.gz 8.15MB Simrad multibeam vendor format
0614_20131220_142526_raw.all.mb56.gz 8.15MB Simrad multibeam vendor format
0615_20131220_152526_raw.all.mb56.gz 8.12MB Simrad multibeam vendor format
0616_20131220_162526_raw.all.mb56.gz 8.15MB Simrad multibeam vendor format
0617_20131220_172526_raw.all.mb56.gz 8.47MB Simrad multibeam vendor format
0618_20131220_182526_raw.all.mb56.gz 17.42MB Simrad multibeam vendor format
0619_20131220_192526_raw.all.mb56.gz 18.33MB Simrad multibeam vendor format
0620_20131220_202526_raw.all.mb56.gz 17.37MB Simrad multibeam vendor format
0621_20131220_212526_raw.all.mb56.gz 16.25MB Simrad multibeam vendor format
0622_20131220_222526_raw.all.mb56.gz 16.49MB Simrad multibeam vendor format
0623_20131220_232526_raw.all.mb56.gz 16.02MB Simrad multibeam vendor format
0624_20131221_002526_raw.all.mb56.gz 18.09MB Simrad multibeam vendor format
0625_20131221_012526_raw.all.mb56.gz 18.17MB Simrad multibeam vendor format
0626_20131221_022526_raw.all.mb56.gz 2.22MB Simrad multibeam vendor format
0627_20131221_023140_raw.all.mb56.gz 21.40MB Simrad multibeam vendor format
0628_20131221_033140_raw.all.mb56.gz 20.31MB Simrad multibeam vendor format
0629_20131221_043140_raw.all.mb56.gz 19.24MB Simrad multibeam vendor format
0630_20131221_053140_raw.all.mb56.gz 19.05MB Simrad multibeam vendor format
0631_20131221_063140_raw.all.mb56.gz 18.56MB Simrad multibeam vendor format
0632_20131221_073140_raw.all.mb56.gz 18.43MB Simrad multibeam vendor format
0633_20131221_083140_raw.all.mb56.gz 18.24MB Simrad multibeam vendor format
0634_20131221_093140_raw.all.mb56.gz 18.56MB Simrad multibeam vendor format
0635_20131221_103140_raw.all.mb56.gz 19.51MB Simrad multibeam vendor format
0636_20131221_113140_raw.all.mb56.gz 19.41MB Simrad multibeam vendor format
0637_20131221_123140_raw.all.mb56.gz 19.27MB Simrad multibeam vendor format
0638_20131221_133140_raw.all.mb56.gz 18.88MB Simrad multibeam vendor format
0639_20131221_143140_raw.all.mb56.gz 18.78MB Simrad multibeam vendor format
0640_20131221_153140_raw.all.mb56.gz 18.02MB Simrad multibeam vendor format
0641_20131221_163140_raw.all.mb56.gz 17.24MB Simrad multibeam vendor format
0642_20131221_173140_raw.all.mb56.gz 17.46MB Simrad multibeam vendor format
0643_20131221_183140_raw.all.mb56.gz 17.35MB Simrad multibeam vendor format
0644_20131221_193140_raw.all.mb56.gz 17.01MB Simrad multibeam vendor format
0645_20131221_203140_raw.all.mb56.gz 16.79MB Simrad multibeam vendor format
0646_20131221_213140_raw.all.mb56.gz 18.11MB Simrad multibeam vendor format
0647_20131221_223140_raw.all.mb56.gz 18.77MB Simrad multibeam vendor format
0648_20131221_233140_raw.all.mb56.gz 16.89MB Simrad multibeam vendor format
0649_20131222_003140_raw.all.mb56.gz 15.88MB Simrad multibeam vendor format
0650_20131222_013140_raw.all.mb56.gz 16.36MB Simrad multibeam vendor format
0651_20131222_023140_raw.all.mb56.gz 14.15MB Simrad multibeam vendor format
0652_20131222_033140_raw.all.mb56.gz 15.30MB Simrad multibeam vendor format
0653_20131222_043140_raw.all.mb56.gz 18.79MB Simrad multibeam vendor format
0654_20131222_053140_raw.all.mb56.gz 16.46MB Simrad multibeam vendor format
0655_20131222_063140_raw.all.mb56.gz 14.11MB Simrad multibeam vendor format
0656_20131222_073140_raw.all.mb56.gz 14.44MB Simrad multibeam vendor format
0657_20131222_083140_raw.all.mb56.gz 18.60MB Simrad multibeam vendor format
0658_20131222_093140_raw.all.mb56.gz 22.10MB Simrad multibeam vendor format
0659_20131222_103140_raw.all.mb56.gz 20.91MB Simrad multibeam vendor format
0660_20131222_113140_raw.all.mb56.gz 21.03MB Simrad multibeam vendor format
0661_20131222_123140_raw.all.mb56.gz 21.30MB Simrad multibeam vendor format
0662_20131222_133140_raw.all.mb56.gz 21.16MB Simrad multibeam vendor format
0663_20131222_143140_raw.all.mb56.gz 21.62MB Simrad multibeam vendor format
0664_20131222_153140_raw.all.mb56.gz 21.53MB Simrad multibeam vendor format
0665_20131222_163140_raw.all.mb56.gz 19.00MB Simrad multibeam vendor format
0666_20131222_173140_raw.all.mb56.gz 21.71MB Simrad multibeam vendor format
0667_20131222_183140_raw.all.mb56.gz 21.42MB Simrad multibeam vendor format
0668_20131222_193140_raw.all.mb56.gz 21.88MB Simrad multibeam vendor format
0669_20131222_203140_raw.all.mb56.gz 21.96MB Simrad multibeam vendor format
0670_20131222_213140_raw.all.mb56.gz 18.37MB Simrad multibeam vendor format
0671_20131222_223140_raw.all.mb56.gz 18.49MB Simrad multibeam vendor format
0672_20131222_233140_raw.all.mb56.gz 17.17MB Simrad multibeam vendor format
0673_20131223_003140_raw.all.mb56.gz 16.15MB Simrad multibeam vendor format
0674_20131223_013140_raw.all.mb56.gz 18.42MB Simrad multibeam vendor format
0675_20131223_023140_raw.all.mb56.gz 16.40MB Simrad multibeam vendor format
0676_20131223_033140_raw.all.mb56.gz 19.25MB Simrad multibeam vendor format
0677_20131223_043140_raw.all.mb56.gz 17.10MB Simrad multibeam vendor format
0678_20131223_053140_raw.all.mb56.gz 19.62MB Simrad multibeam vendor format
0679_20131223_063140_raw.all.mb56.gz 19.04MB Simrad multibeam vendor format
0680_20131223_073140_raw.all.mb56.gz 19.39MB Simrad multibeam vendor format
0681_20131223_083140_raw.all.mb56.gz 16.91MB Simrad multibeam vendor format
0682_20131223_093140_raw.all.mb56.gz 19.84MB Simrad multibeam vendor format
0683_20131223_103140_raw.all.mb56.gz 17.80MB Simrad multibeam vendor format
0684_20131223_113140_raw.all.mb56.gz 19.28MB Simrad multibeam vendor format
0685_20131223_123140_raw.all.mb56.gz 19.74MB Simrad multibeam vendor format
0686_20131223_133140_raw.all.mb56.gz 16.93MB Simrad multibeam vendor format
0687_20131223_143140_raw.all.mb56.gz 13.48MB Simrad multibeam vendor format
0688_20131223_153140_raw.all.mb56.gz 15.80MB Simrad multibeam vendor format
0689_20131223_163140_raw.all.mb56.gz 18.88MB Simrad multibeam vendor format
0690_20131223_173140_raw.all.mb56.gz 19.13MB Simrad multibeam vendor format
0691_20131223_183140_raw.all.mb56.gz 19.27MB Simrad multibeam vendor format
0692_20131223_193140_raw.all.mb56.gz 19.25MB Simrad multibeam vendor format
0693_20131223_203140_raw.all.mb56.gz 18.80MB Simrad multibeam vendor format
0694_20131223_213140_raw.all.mb56.gz 18.57MB Simrad multibeam vendor format
0695_20131223_223140_raw.all.mb56.gz 18.64MB Simrad multibeam vendor format
0696_20131223_233140_raw.all.mb56.gz 18.74MB Simrad multibeam vendor format
0697_20131224_003140_raw.all.mb56.gz 18.75MB Simrad multibeam vendor format
0698_20131224_013140_raw.all.mb56.gz 18.50MB Simrad multibeam vendor format
0699_20131224_023140_raw.all.mb56.gz 19.03MB Simrad multibeam vendor format
0700_20131224_033140_raw.all.mb56.gz 19.01MB Simrad multibeam vendor format
0701_20131224_043140_raw.all.mb56.gz 18.54MB Simrad multibeam vendor format
0702_20131224_053140_raw.all.mb56.gz 18.52MB Simrad multibeam vendor format
0703_20131224_063140_raw.all.mb56.gz 16.73MB Simrad multibeam vendor format
0704_20131224_073140_raw.all.mb56.gz 18.00MB Simrad multibeam vendor format
0705_20131224_083140_raw.all.mb56.gz 17.98MB Simrad multibeam vendor format
0706_20131224_093140_raw.all.mb56.gz 16.09MB Simrad multibeam vendor format
0707_20131224_103140_raw.all.mb56.gz 14.97MB Simrad multibeam vendor format
0708_20131224_113140_raw.all.mb56.gz 17.48MB Simrad multibeam vendor format
0709_20131224_123140_raw.all.mb56.gz 17.36MB Simrad multibeam vendor format
0710_20131224_133140_raw.all.mb56.gz 16.28MB Simrad multibeam vendor format
0711_20131224_143140_raw.all.mb56.gz 17.94MB Simrad multibeam vendor format
0712_20131224_153140_raw.all.mb56.gz 14.81MB Simrad multibeam vendor format
0713_20131224_163140_raw.all.mb56.gz 16.83MB Simrad multibeam vendor format
0714_20131224_173140_raw.all.mb56.gz 17.78MB Simrad multibeam vendor format
0715_20131224_183140_raw.all.mb56.gz 18.57MB Simrad multibeam vendor format
0716_20131224_193141_raw.all.mb56.gz 18.47MB Simrad multibeam vendor format
0717_20131224_203141_raw.all.mb56.gz 16.59MB Simrad multibeam vendor format
0718_20131224_213141_raw.all.mb56.gz 24.74MB Simrad multibeam vendor format
0719_20131224_223141_raw.all.mb56.gz 16.78MB Simrad multibeam vendor format
0720_20131224_233142_raw.all.mb56.gz 19.35MB Simrad multibeam vendor format
0721_20131225_003142_raw.all.mb56.gz 23.13MB Simrad multibeam vendor format
0722_20131225_013142_raw.all.mb56.gz 23.17MB Simrad multibeam vendor format
0723_20131225_023142_raw.all.mb56.gz 23.25MB Simrad multibeam vendor format
0724_20131225_033142_raw.all.mb56.gz 23.30MB Simrad multibeam vendor format
0725_20131225_043143_raw.all.mb56.gz 23.12MB Simrad multibeam vendor format
0726_20131225_053143_raw.all.mb56.gz 22.91MB Simrad multibeam vendor format
0727_20131225_063143_raw.all.mb56.gz 22.50MB Simrad multibeam vendor format
0728_20131225_073143_raw.all.mb56.gz 21.83MB Simrad multibeam vendor format
0729_20131225_083143_raw.all.mb56.gz 20.68MB Simrad multibeam vendor format
0730_20131225_093143_raw.all.mb56.gz 18.86MB Simrad multibeam vendor format
0731_20131225_103143_raw.all.mb56.gz 15.56MB Simrad multibeam vendor format
0732_20131225_113143_raw.all.mb56.gz 16.25MB Simrad multibeam vendor format
0733_20131225_123143_raw.all.mb56.gz 16.64MB Simrad multibeam vendor format
0734_20131225_133143_raw.all.mb56.gz 15.97MB Simrad multibeam vendor format
0735_20131225_143143_raw.all.mb56.gz 15.74MB Simrad multibeam vendor format
0736_20131225_153143_raw.all.mb56.gz 14.99MB Simrad multibeam vendor format
0737_20131225_163143_raw.all.mb56.gz 20.90MB Simrad multibeam vendor format
0738_20131225_173143_raw.all.mb56.gz 20.85MB Simrad multibeam vendor format
0739_20131225_183143_raw.all.mb56.gz 21.03MB Simrad multibeam vendor format
0740_20131225_193143_raw.all.mb56.gz 21.06MB Simrad multibeam vendor format
0741_20131225_203143_raw.all.mb56.gz 21.04MB Simrad multibeam vendor format
0742_20131225_213143_raw.all.mb56.gz 16.69MB Simrad multibeam vendor format
0743_20131225_223143_raw.all.mb56.gz 16.44MB Simrad multibeam vendor format
0744_20131225_233143_raw.all.mb56.gz 17.19MB Simrad multibeam vendor format
0745_20131226_003143_raw.all.mb56.gz 20.71MB Simrad multibeam vendor format
0746_20131226_013143_raw.all.mb56.gz 21.24MB Simrad multibeam vendor format
0747_20131226_023143_raw.all.mb56.gz 20.44MB Simrad multibeam vendor format
0748_20131226_033143_raw.all.mb56.gz 20.40MB Simrad multibeam vendor format
0749_20131226_043143_raw.all.mb56.gz 18.83MB Simrad multibeam vendor format
0750_20131226_053143_raw.all.mb56.gz 20.42MB Simrad multibeam vendor format
0751_20131226_063143_raw.all.mb56.gz 19.89MB Simrad multibeam vendor format
0752_20131226_073143_raw.all.mb56.gz 18.36MB Simrad multibeam vendor format
0753_20131226_083143_raw.all.mb56.gz 19.64MB Simrad multibeam vendor format
0754_20131226_093143_raw.all.mb56.gz 17.90MB Simrad multibeam vendor format
0755_20131226_103143_raw.all.mb56.gz 19.87MB Simrad multibeam vendor format
0756_20131226_113143_raw.all.mb56.gz 8.70MB Simrad multibeam vendor format
0756_20131226_120707_raw.all.mb56.gz 64.2KB Simrad multibeam vendor format
0757_20131226_124542_raw.all.mb56.gz 19.80MB Simrad multibeam vendor format
0758_20131226_134542_raw.all.mb56.gz 17.08MB Simrad multibeam vendor format
0759_20131226_144542_raw.all.mb56.gz 17.73MB Simrad multibeam vendor format
0760_20131226_154542_raw.all.mb56.gz 18.45MB Simrad multibeam vendor format
0761_20131226_164542_raw.all.mb56.gz 19.86MB Simrad multibeam vendor format
0762_20131226_174542_raw.all.mb56.gz 22.37MB Simrad multibeam vendor format
0763_20131226_184542_raw.all.mb56.gz 22.86MB Simrad multibeam vendor format
0764_20131226_194542_raw.all.mb56.gz 22.76MB Simrad multibeam vendor format
0765_20131226_204542_raw.all.mb56.gz 23.36MB Simrad multibeam vendor format
0766_20131226_214542_raw.all.mb56.gz 23.92MB Simrad multibeam vendor format
0767_20131226_224542_raw.all.mb56.gz 23.93MB Simrad multibeam vendor format
0768_20131226_234542_raw.all.mb56.gz 24.62MB Simrad multibeam vendor format
0769_20131227_004542_raw.all.mb56.gz 24.99MB Simrad multibeam vendor format
0770_20131227_014542_raw.all.mb56.gz 25.17MB Simrad multibeam vendor format
0771_20131227_024542_raw.all.mb56.gz 25.34MB Simrad multibeam vendor format
0772_20131227_034542_raw.all.mb56.gz 25.84MB Simrad multibeam vendor format
0773_20131227_044542_raw.all.mb56.gz 26.06MB Simrad multibeam vendor format
0774_20131227_054542_raw.all.mb56.gz 26.05MB Simrad multibeam vendor format
0775_20131227_064542_raw.all.mb56.gz 26.15MB Simrad multibeam vendor format
0776_20131227_074542_raw.all.mb56.gz 26.20MB Simrad multibeam vendor format
0777_20131227_084542_raw.all.mb56.gz 26.18MB Simrad multibeam vendor format
0778_20131227_094542_raw.all.mb56.gz 26.08MB Simrad multibeam vendor format
0779_20131227_104542_raw.all.mb56.gz 26.01MB Simrad multibeam vendor format
0780_20131227_114542_raw.all.mb56.gz 25.91MB Simrad multibeam vendor format
0781_20131227_124542_raw.all.mb56.gz 25.05MB Simrad multibeam vendor format
0782_20131227_134542_raw.all.mb56.gz 25.50MB Simrad multibeam vendor format
0783_20131227_144542_raw.all.mb56.gz 25.92MB Simrad multibeam vendor format
0784_20131227_154542_raw.all.mb56.gz 26.07MB Simrad multibeam vendor format
0785_20131227_164542_raw.all.mb56.gz 26.08MB Simrad multibeam vendor format
0786_20131227_174542_raw.all.mb56.gz 26.15MB Simrad multibeam vendor format
0787_20131227_184542_raw.all.mb56.gz 25.32MB Simrad multibeam vendor format
0788_20131227_194542_raw.all.mb56.gz 22.54MB Simrad multibeam vendor format
0789_20131227_204542_raw.all.mb56.gz 23.39MB Simrad multibeam vendor format
0790_20131227_214542_raw.all.mb56.gz 25.11MB Simrad multibeam vendor format
0791_20131227_224542_raw.all.mb56.gz 23.56MB Simrad multibeam vendor format
0792_20131227_234542_raw.all.mb56.gz 21.68MB Simrad multibeam vendor format
0793_20131228_004542_raw.all.mb56.gz 21.43MB Simrad multibeam vendor format
0794_20131228_014542_raw.all.mb56.gz 21.01MB Simrad multibeam vendor format
0795_20131228_024542_raw.all.mb56.gz 21.36MB Simrad multibeam vendor format
0796_20131228_034542_raw.all.mb56.gz 21.20MB Simrad multibeam vendor format
0797_20131228_044542_raw.all.mb56.gz 20.05MB Simrad multibeam vendor format
0798_20131228_054542_raw.all.mb56.gz 19.80MB Simrad multibeam vendor format
0799_20131228_064542_raw.all.mb56.gz 19.60MB Simrad multibeam vendor format
0800_20131228_074542_raw.all.mb56.gz 19.39MB Simrad multibeam vendor format
0801_20131228_084542_raw.all.mb56.gz 19.27MB Simrad multibeam vendor format
0802_20131228_094542_raw.all.mb56.gz 19.07MB Simrad multibeam vendor format
0803_20131228_104542_raw.all.mb56.gz 19.42MB Simrad multibeam vendor format
0804_20131228_114542_raw.all.mb56.gz 19.47MB Simrad multibeam vendor format
0805_20131228_124542_raw.all.mb56.gz 19.38MB Simrad multibeam vendor format
0806_20131228_134542_raw.all.mb56.gz 19.46MB Simrad multibeam vendor format
0807_20131228_144542_raw.all.mb56.gz 19.28MB Simrad multibeam vendor format
0808_20131228_154542_raw.all.mb56.gz 19.53MB Simrad multibeam vendor format
0809_20131228_164542_raw.all.mb56.gz 19.45MB Simrad multibeam vendor format
0810_20131228_174542_raw.all.mb56.gz 19.49MB Simrad multibeam vendor format
0811_20131228_184542_raw.all.mb56.gz 19.54MB Simrad multibeam vendor format
0812_20131228_194542_raw.all.mb56.gz 19.25MB Simrad multibeam vendor format
0813_20131228_204542_raw.all.mb56.gz 19.54MB Simrad multibeam vendor format
0814_20131228_214542_raw.all.mb56.gz 19.52MB Simrad multibeam vendor format
0815_20131228_224542_raw.all.mb56.gz 19.14MB Simrad multibeam vendor format
0816_20131228_234542_raw.all.mb56.gz 19.30MB Simrad multibeam vendor format
0817_20131229_004542_raw.all.mb56.gz 19.28MB Simrad multibeam vendor format
0818_20131229_014542_raw.all.mb56.gz 19.51MB Simrad multibeam vendor format
0819_20131229_024542_raw.all.mb56.gz 19.60MB Simrad multibeam vendor format
0820_20131229_034542_raw.all.mb56.gz 19.42MB Simrad multibeam vendor format
0821_20131229_044542_raw.all.mb56.gz 19.15MB Simrad multibeam vendor format
0822_20131229_054542_raw.all.mb56.gz 19.05MB Simrad multibeam vendor format
0823_20131229_064542_raw.all.mb56.gz 19.42MB Simrad multibeam vendor format
0824_20131229_074542_raw.all.mb56.gz 19.34MB Simrad multibeam vendor format
0825_20131229_084542_raw.all.mb56.gz 19.28MB Simrad multibeam vendor format
0826_20131229_094542_raw.all.mb56.gz 19.06MB Simrad multibeam vendor format
0827_20131229_104542_raw.all.mb56.gz 19.26MB Simrad multibeam vendor format
0828_20131229_114542_raw.all.mb56.gz 19.42MB Simrad multibeam vendor format
0829_20131229_124542_raw.all.mb56.gz 19.60MB Simrad multibeam vendor format
0830_20131229_134542_raw.all.mb56.gz 19.70MB Simrad multibeam vendor format
0831_20131229_144542_raw.all.mb56.gz 19.90MB Simrad multibeam vendor format
0832_20131229_154542_raw.all.mb56.gz 19.88MB Simrad multibeam vendor format
0833_20131229_164542_raw.all.mb56.gz 19.86MB Simrad multibeam vendor format
0834_20131229_174542_raw.all.mb56.gz 19.87MB Simrad multibeam vendor format
0835_20131229_184542_raw.all.mb56.gz 19.83MB Simrad multibeam vendor format
0836_20131229_194542_raw.all.mb56.gz 19.80MB Simrad multibeam vendor format
0837_20131229_204542_raw.all.mb56.gz 19.61MB Simrad multibeam vendor format
0838_20131229_214542_raw.all.mb56.gz 18.09MB Simrad multibeam vendor format
0839_20131229_224542_raw.all.mb56.gz 19.24MB Simrad multibeam vendor format
0840_20131229_234542_raw.all.mb56.gz 19.10MB Simrad multibeam vendor format
0841_20131230_004542_raw.all.mb56.gz 18.11MB Simrad multibeam vendor format
0842_20131230_014542_raw.all.mb56.gz 18.97MB Simrad multibeam vendor format
0843_20131230_024542_raw.all.mb56.gz 18.17MB Simrad multibeam vendor format
0844_20131230_034542_raw.all.mb56.gz 19.18MB Simrad multibeam vendor format
0845_20131230_044542_raw.all.mb56.gz 19.85MB Simrad multibeam vendor format
0846_20131230_054542_raw.all.mb56.gz 19.75MB Simrad multibeam vendor format
0847_20131230_064542_raw.all.mb56.gz 19.76MB Simrad multibeam vendor format
0848_20131230_074542_raw.all.mb56.gz 19.79MB Simrad multibeam vendor format
0849_20131230_084542_raw.all.mb56.gz 19.60MB Simrad multibeam vendor format
0850_20131230_094542_raw.all.mb56.gz 19.68MB Simrad multibeam vendor format
0851_20131230_104542_raw.all.mb56.gz 19.41MB Simrad multibeam vendor format
0852_20131230_114542_raw.all.mb56.gz 19.08MB Simrad multibeam vendor format
0853_20131230_124542_raw.all.mb56.gz 18.02MB Simrad multibeam vendor format
0854_20131230_134542_raw.all.mb56.gz 18.38MB Simrad multibeam vendor format
0855_20131230_144542_raw.all.mb56.gz 18.94MB Simrad multibeam vendor format
0856_20131230_154542_raw.all.mb56.gz 19.31MB Simrad multibeam vendor format
0857_20131230_164542_raw.all.mb56.gz 19.37MB Simrad multibeam vendor format
0858_20131230_174542_raw.all.mb56.gz 19.61MB Simrad multibeam vendor format
0859_20131230_184542_raw.all.mb56.gz 19.58MB Simrad multibeam vendor format
0860_20131230_194542_raw.all.mb56.gz 19.52MB Simrad multibeam vendor format
0861_20131230_204542_raw.all.mb56.gz 19.42MB Simrad multibeam vendor format
0862_20131230_214542_raw.all.mb56.gz 19.36MB Simrad multibeam vendor format
0863_20131230_224542_raw.all.mb56.gz 19.33MB Simrad multibeam vendor format
0864_20131230_234542_raw.all.mb56.gz 19.11MB Simrad multibeam vendor format
0865_20131231_004542_raw.all.mb56.gz 19.36MB Simrad multibeam vendor format
0866_20131231_014542_raw.all.mb56.gz 19.01MB Simrad multibeam vendor format
0867_20131231_024542_raw.all.mb56.gz 18.94MB Simrad multibeam vendor format
0868_20131231_034542_raw.all.mb56.gz 19.04MB Simrad multibeam vendor format
0869_20131231_044542_raw.all.mb56.gz 19.12MB Simrad multibeam vendor format
0870_20131231_054542_raw.all.mb56.gz 19.08MB Simrad multibeam vendor format
0871_20131231_064542_raw.all.mb56.gz 19.08MB Simrad multibeam vendor format
0872_20131231_074542_raw.all.mb56.gz 18.99MB Simrad multibeam vendor format
0873_20131231_084542_raw.all.mb56.gz 18.87MB Simrad multibeam vendor format
0874_20131231_094542_raw.all.mb56.gz 18.83MB Simrad multibeam vendor format
0875_20131231_104542_raw.all.mb56.gz 18.72MB Simrad multibeam vendor format
0876_20131231_114542_raw.all.mb56.gz 18.78MB Simrad multibeam vendor format
0877_20131231_124542_raw.all.mb56.gz 18.74MB Simrad multibeam vendor format
0878_20131231_134542_raw.all.mb56.gz 18.59MB Simrad multibeam vendor format
0879_20131231_144542_raw.all.mb56.gz 18.64MB Simrad multibeam vendor format
0880_20131231_154542_raw.all.mb56.gz 18.57MB Simrad multibeam vendor format
0881_20131231_164542_raw.all.mb56.gz 18.67MB Simrad multibeam vendor format
0882_20131231_174542_raw.all.mb56.gz 18.47MB Simrad multibeam vendor format
0883_20131231_184542_raw.all.mb56.gz 18.68MB Simrad multibeam vendor format
0884_20131231_194542_raw.all.mb56.gz 18.84MB Simrad multibeam vendor format
0885_20131231_204542_raw.all.mb56.gz 18.33MB Simrad multibeam vendor format
0886_20131231_214542_raw.all.mb56.gz 18.92MB Simrad multibeam vendor format
0887_20131231_224542_raw.all.mb56.gz 21.09MB Simrad multibeam vendor format
0888_20131231_234543_raw.all.mb56.gz 20.92MB Simrad multibeam vendor format
0889_20140101_004543_raw.all.mb56.gz 13.27MB Simrad multibeam vendor format
0890_20140101_012832_raw.all.mb56.gz 20.32MB Simrad multibeam vendor format
0891_20140101_022832_raw.all.mb56.gz 19.36MB Simrad multibeam vendor format
0892_20140101_032832_raw.all.mb56.gz 19.70MB Simrad multibeam vendor format
0893_20140101_042833_raw.all.mb56.gz 19.07MB Simrad multibeam vendor format
0894_20140101_052833_raw.all.mb56.gz 18.82MB Simrad multibeam vendor format
0895_20140101_062833_raw.all.mb56.gz 18.18MB Simrad multibeam vendor format
0896_20140101_072833_raw.all.mb56.gz 18.25MB Simrad multibeam vendor format
0897_20140101_082833_raw.all.mb56.gz 18.34MB Simrad multibeam vendor format
0898_20140101_092833_raw.all.mb56.gz 18.47MB Simrad multibeam vendor format
0899_20140101_102833_raw.all.mb56.gz 18.51MB Simrad multibeam vendor format
0900_20140101_112833_raw.all.mb56.gz 18.53MB Simrad multibeam vendor format
0901_20140101_122833_raw.all.mb56.gz 18.57MB Simrad multibeam vendor format
0902_20140101_132833_raw.all.mb56.gz 18.62MB Simrad multibeam vendor format
0903_20140101_142833_raw.all.mb56.gz 18.61MB Simrad multibeam vendor format
0904_20140101_152833_raw.all.mb56.gz 18.62MB Simrad multibeam vendor format
0905_20140101_162833_raw.all.mb56.gz 18.66MB Simrad multibeam vendor format
0906_20140101_172833_raw.all.mb56.gz 18.58MB Simrad multibeam vendor format
0907_20140101_182833_raw.all.mb56.gz 18.56MB Simrad multibeam vendor format
0908_20140101_192833_raw.all.mb56.gz 18.57MB Simrad multibeam vendor format
0909_20140101_202833_raw.all.mb56.gz 18.59MB Simrad multibeam vendor format
0910_20140101_212833_raw.all.mb56.gz 18.64MB Simrad multibeam vendor format
0911_20140101_222833_raw.all.mb56.gz 18.70MB Simrad multibeam vendor format
0912_20140101_232833_raw.all.mb56.gz 18.02MB Simrad multibeam vendor format
0913_20140102_002833_raw.all.mb56.gz 15.61MB Simrad multibeam vendor format
0914_20140102_012833_raw.all.mb56.gz 16.44MB Simrad multibeam vendor format
0915_20140102_022833_raw.all.mb56.gz 17.27MB Simrad multibeam vendor format
0916_20140102_032833_raw.all.mb56.gz 17.50MB Simrad multibeam vendor format
0917_20140102_042833_raw.all.mb56.gz 17.57MB Simrad multibeam vendor format
0918_20140102_052833_raw.all.mb56.gz 17.78MB Simrad multibeam vendor format
0919_20140102_062833_raw.all.mb56.gz 17.47MB Simrad multibeam vendor format
0920_20140102_072833_raw.all.mb56.gz 17.69MB Simrad multibeam vendor format
0921_20140102_082833_raw.all.mb56.gz 16.94MB Simrad multibeam vendor format
0922_20140102_092833_raw.all.mb56.gz 17.55MB Simrad multibeam vendor format
0923_20140102_102833_raw.all.mb56.gz 17.65MB Simrad multibeam vendor format
0924_20140102_112833_raw.all.mb56.gz 17.75MB Simrad multibeam vendor format
0925_20140102_122833_raw.all.mb56.gz 17.89MB Simrad multibeam vendor format
0926_20140102_132833_raw.all.mb56.gz 17.97MB Simrad multibeam vendor format
0927_20140102_142833_raw.all.mb56.gz 17.97MB Simrad multibeam vendor format
0928_20140102_152833_raw.all.mb56.gz 18.23MB Simrad multibeam vendor format
0929_20140102_162833_raw.all.mb56.gz 18.28MB Simrad multibeam vendor format
0930_20140102_172833_raw.all.mb56.gz 18.24MB Simrad multibeam vendor format
0931_20140102_182833_raw.all.mb56.gz 18.43MB Simrad multibeam vendor format
0932_20140102_192833_raw.all.mb56.gz 18.41MB Simrad multibeam vendor format
0933_20140102_202833_raw.all.mb56.gz 18.44MB Simrad multibeam vendor format
0934_20140102_212833_raw.all.mb56.gz 18.35MB Simrad multibeam vendor format
0935_20140102_222833_raw.all.mb56.gz 17.14MB Simrad multibeam vendor format
0936_20140102_232833_raw.all.mb56.gz 89.0KB Simrad multibeam vendor format
0937_20140103_005247_raw.all.mb56.gz 17.99MB Simrad multibeam vendor format
0938_20140103_015247_raw.all.mb56.gz 2.31MB Simrad multibeam vendor format
0939_20140103_023138_raw.all.mb56.gz 18.04MB Simrad multibeam vendor format
0940_20140103_033138_raw.all.mb56.gz 18.38MB Simrad multibeam vendor format
0941_20140103_043138_raw.all.mb56.gz 18.35MB Simrad multibeam vendor format
0942_20140103_053138_raw.all.mb56.gz 18.19MB Simrad multibeam vendor format
0943_20140103_063138_raw.all.mb56.gz 18.28MB Simrad multibeam vendor format
0944_20140103_073138_raw.all.mb56.gz 18.59MB Simrad multibeam vendor format
0945_20140103_083138_raw.all.mb56.gz 18.54MB Simrad multibeam vendor format
0946_20140103_093138_raw.all.mb56.gz 18.41MB Simrad multibeam vendor format
0947_20140103_103138_raw.all.mb56.gz 18.39MB Simrad multibeam vendor format
0948_20140103_113138_raw.all.mb56.gz 18.20MB Simrad multibeam vendor format
0949_20140103_123138_raw.all.mb56.gz 18.20MB Simrad multibeam vendor format
0950_20140103_133138_raw.all.mb56.gz 18.28MB Simrad multibeam vendor format
0951_20140103_143138_raw.all.mb56.gz 18.36MB Simrad multibeam vendor format
0952_20140103_153138_raw.all.mb56.gz 18.74MB Simrad multibeam vendor format
0953_20140103_163138_raw.all.mb56.gz 19.00MB Simrad multibeam vendor format
0954_20140103_173138_raw.all.mb56.gz 18.83MB Simrad multibeam vendor format
0955_20140103_183138_raw.all.mb56.gz 19.19MB Simrad multibeam vendor format
0956_20140103_193138_raw.all.mb56.gz 19.22MB Simrad multibeam vendor format
0957_20140103_203138_raw.all.mb56.gz 19.31MB Simrad multibeam vendor format
0958_20140103_213138_raw.all.mb56.gz 19.36MB Simrad multibeam vendor format
0959_20140103_223138_raw.all.mb56.gz 19.11MB Simrad multibeam vendor format
0960_20140103_233138_raw.all.mb56.gz 19.05MB Simrad multibeam vendor format
0961_20140104_003138_raw.all.mb56.gz 18.71MB Simrad multibeam vendor format
0962_20140104_013138_raw.all.mb56.gz 18.32MB Simrad multibeam vendor format
0963_20140104_023138_raw.all.mb56.gz 18.73MB Simrad multibeam vendor format
0964_20140104_033138_raw.all.mb56.gz 18.64MB Simrad multibeam vendor format
0965_20140104_043138_raw.all.mb56.gz 18.68MB Simrad multibeam vendor format
0966_20140104_053138_raw.all.mb56.gz 18.70MB Simrad multibeam vendor format
0967_20140104_063138_raw.all.mb56.gz 18.76MB Simrad multibeam vendor format
0968_20140104_073138_raw.all.mb56.gz 18.97MB Simrad multibeam vendor format
0969_20140104_083138_raw.all.mb56.gz 19.30MB Simrad multibeam vendor format
0970_20140104_093138_raw.all.mb56.gz 19.67MB Simrad multibeam vendor format
0971_20140104_103138_raw.all.mb56.gz 20.19MB Simrad multibeam vendor format
0972_20140104_113138_raw.all.mb56.gz 20.62MB Simrad multibeam vendor format
0973_20140104_123138_raw.all.mb56.gz 20.70MB Simrad multibeam vendor format
0974_20140104_133138_raw.all.mb56.gz 20.70MB Simrad multibeam vendor format
0975_20140104_143138_raw.all.mb56.gz 20.80MB Simrad multibeam vendor format
0976_20140104_153138_raw.all.mb56.gz 21.32MB Simrad multibeam vendor format
0977_20140104_163138_raw.all.mb56.gz 21.35MB Simrad multibeam vendor format
0978_20140104_173138_raw.all.mb56.gz 21.33MB Simrad multibeam vendor format
0979_20140104_183138_raw.all.mb56.gz 21.39MB Simrad multibeam vendor format
0980_20140104_193138_raw.all.mb56.gz 21.60MB Simrad multibeam vendor format
0981_20140104_203138_raw.all.mb56.gz 20.79MB Simrad multibeam vendor format
0982_20140104_213138_raw.all.mb56.gz 19.73MB Simrad multibeam vendor format
0983_20140104_223138_raw.all.mb56.gz 19.34MB Simrad multibeam vendor format
0984_20140104_233138_raw.all.mb56.gz 18.98MB Simrad multibeam vendor format
0985_20140105_003138_raw.all.mb56.gz 19.04MB Simrad multibeam vendor format
0986_20140105_013138_raw.all.mb56.gz 19.08MB Simrad multibeam vendor format
0987_20140105_023138_raw.all.mb56.gz 19.08MB Simrad multibeam vendor format
0988_20140105_033138_raw.all.mb56.gz 19.13MB Simrad multibeam vendor format
0989_20140105_043138_raw.all.mb56.gz 19.12MB Simrad multibeam vendor format
0990_20140105_053138_raw.all.mb56.gz 19.11MB Simrad multibeam vendor format
0991_20140105_063138_raw.all.mb56.gz 19.06MB Simrad multibeam vendor format
0992_20140105_073138_raw.all.mb56.gz 18.12MB Simrad multibeam vendor format
0993_20140105_083138_raw.all.mb56.gz 18.41MB Simrad multibeam vendor format
0994_20140105_093138_raw.all.mb56.gz 19.14MB Simrad multibeam vendor format
0995_20140105_103138_raw.all.mb56.gz 20.09MB Simrad multibeam vendor format
0996_20140105_113138_raw.all.mb56.gz 22.75MB Simrad multibeam vendor format
0997_20140105_123138_raw.all.mb56.gz 23.05MB Simrad multibeam vendor format
0998_20140105_133138_raw.all.mb56.gz 20.26MB Simrad multibeam vendor format
0999_20140105_143138_raw.all.mb56.gz 20.03MB Simrad multibeam vendor format
1000_20140105_153138_raw.all.mb56.gz 19.99MB Simrad multibeam vendor format
1001_20140105_163138_raw.all.mb56.gz 20.61MB Simrad multibeam vendor format
1002_20140105_173138_raw.all.mb56.gz 20.43MB Simrad multibeam vendor format
1003_20140105_183138_raw.all.mb56.gz 20.62MB Simrad multibeam vendor format
1004_20140105_193138_raw.all.mb56.gz 21.35MB Simrad multibeam vendor format
1005_20140105_203138_raw.all.mb56.gz 22.14MB Simrad multibeam vendor format
1006_20140105_213138_raw.all.mb56.gz 22.61MB Simrad multibeam vendor format
1007_20140105_223138_raw.all.mb56.gz 23.72MB Simrad multibeam vendor format
1008_20140105_233138_raw.all.mb56.gz 24.99MB Simrad multibeam vendor format
1009_20140106_003138_raw.all.mb56.gz 25.99MB Simrad multibeam vendor format
1010_20140106_013138_raw.all.mb56.gz 26.99MB Simrad multibeam vendor format
1011_20140106_023138_raw.all.mb56.gz 27.30MB Simrad multibeam vendor format
1012_20140106_033138_raw.all.mb56.gz 26.30MB Simrad multibeam vendor format
1013_20140106_043138_raw.all.mb56.gz 23.77MB Simrad multibeam vendor format
1014_20140106_053138_raw.all.mb56.gz 21.83MB Simrad multibeam vendor format
1015_20140106_063138_raw.all.mb56.gz 21.47MB Simrad multibeam vendor format
1016_20140106_073138_raw.all.mb56.gz 19.58MB Simrad multibeam vendor format
1017_20140106_083138_raw.all.mb56.gz 17.58MB Simrad multibeam vendor format
1018_20140106_093138_raw.all.mb56.gz 13.88MB Simrad multibeam vendor format
1019_20140106_103138_raw.all.mb56.gz 11.77MB Simrad multibeam vendor format
1020_20140106_113138_raw.all.mb56.gz 10.06MB Simrad multibeam vendor format
1021_20140106_123138_raw.all.mb56.gz 10.08MB Simrad multibeam vendor format
1022_20140106_133138_raw.all.mb56.gz 9.50MB Simrad multibeam vendor format
1023_20140106_143138_raw.all.mb56.gz 11.12MB Simrad multibeam vendor format
1024_20140106_153138_raw.all.mb56.gz 10.02MB Simrad multibeam vendor format
1025_20140106_163138_raw.all.mb56.gz 9.76MB Simrad multibeam vendor format
1026_20140106_173138_raw.all.mb56.gz 9.92MB Simrad multibeam vendor format
1027_20140106_183138_raw.all.mb56.gz 9.47MB Simrad multibeam vendor format
1028_20140106_193138_raw.all.mb56.gz 8.72MB Simrad multibeam vendor format
1029_20140106_203138_raw.all.mb56.gz 8.79MB Simrad multibeam vendor format
1030_20140106_213138_raw.all.mb56.gz 8.24MB Simrad multibeam vendor format
1031_20140106_223138_raw.all.mb56.gz 9.61MB Simrad multibeam vendor format
1032_20140106_233138_raw.all.mb56.gz 9.73MB Simrad multibeam vendor format
1033_20140107_003138_raw.all.mb56.gz 9.20MB Simrad multibeam vendor format
1034_20140107_013138_raw.all.mb56.gz 8.79MB Simrad multibeam vendor format
1035_20140107_023138_raw.all.mb56.gz 8.98MB Simrad multibeam vendor format
1036_20140107_033138_raw.all.mb56.gz 8.91MB Simrad multibeam vendor format
1037_20140107_043138_raw.all.mb56.gz 8.86MB Simrad multibeam vendor format
1038_20140107_053138_raw.all.mb56.gz 8.79MB Simrad multibeam vendor format
1039_20140107_063138_raw.all.mb56.gz 8.92MB Simrad multibeam vendor format
1040_20140107_073138_raw.all.mb56.gz 8.78MB Simrad multibeam vendor format
1041_20140107_083138_raw.all.mb56.gz 8.91MB Simrad multibeam vendor format
1042_20140107_093138_raw.all.mb56.gz 8.93MB Simrad multibeam vendor format
1043_20140107_103138_raw.all.mb56.gz 8.91MB Simrad multibeam vendor format
1044_20140107_113138_raw.all.mb56.gz 9.11MB Simrad multibeam vendor format
1045_20140107_123138_raw.all.mb56.gz 9.28MB Simrad multibeam vendor format
1046_20140107_133138_raw.all.mb56.gz 9.25MB Simrad multibeam vendor format
1047_20140107_143138_raw.all.mb56.gz 8.95MB Simrad multibeam vendor format
1048_20140107_153138_raw.all.mb56.gz 8.54MB Simrad multibeam vendor format
1049_20140107_163138_raw.all.mb56.gz 8.64MB Simrad multibeam vendor format
1050_20140107_173138_raw.all.mb56.gz 8.79MB Simrad multibeam vendor format
1051_20140107_183139_raw.all.mb56.gz 8.99MB Simrad multibeam vendor format
1052_20140107_193139_raw.all.mb56.gz 9.05MB Simrad multibeam vendor format
1053_20140107_203139_raw.all.mb56.gz 9.04MB Simrad multibeam vendor format
1054_20140107_213139_raw.all.mb56.gz 8.59MB Simrad multibeam vendor format
1055_20140107_223139_raw.all.mb56.gz 8.59MB Simrad multibeam vendor format
1056_20140107_233140_raw.all.mb56.gz 8.68MB Simrad multibeam vendor format
1057_20140108_003140_raw.all.mb56.gz 9.67MB Simrad multibeam vendor format
1058_20140108_013140_raw.all.mb56.gz 9.00MB Simrad multibeam vendor format
1059_20140108_023140_raw.all.mb56.gz 8.74MB Simrad multibeam vendor format
1060_20140108_033141_raw.all.mb56.gz 8.90MB Simrad multibeam vendor format
1061_20140108_043141_raw.all.mb56.gz 8.53MB Simrad multibeam vendor format
1062_20140108_053141_raw.all.mb56.gz 8.39MB Simrad multibeam vendor format
1063_20140108_063141_raw.all.mb56.gz 8.64MB Simrad multibeam vendor format
1064_20140108_073141_raw.all.mb56.gz 8.59MB Simrad multibeam vendor format
1065_20140108_083141_raw.all.mb56.gz 8.58MB Simrad multibeam vendor format
1066_20140108_093141_raw.all.mb56.gz 8.50MB Simrad multibeam vendor format
1067_20140108_103141_raw.all.mb56.gz 8.56MB Simrad multibeam vendor format
1068_20140108_113141_raw.all.mb56.gz 8.58MB Simrad multibeam vendor format
1069_20140108_123141_raw.all.mb56.gz 8.45MB Simrad multibeam vendor format
1070_20140108_133141_raw.all.mb56.gz 8.46MB Simrad multibeam vendor format
1071_20140108_143141_raw.all.mb56.gz 8.45MB Simrad multibeam vendor format
1072_20140108_153141_raw.all.mb56.gz 8.27MB Simrad multibeam vendor format
1073_20140108_163141_raw.all.mb56.gz 7.75MB Simrad multibeam vendor format
1074_20140108_173141_raw.all.mb56.gz 7.78MB Simrad multibeam vendor format
1075_20140108_183141_raw.all.mb56.gz 9.00MB Simrad multibeam vendor format
1076_20140108_193141_raw.all.mb56.gz 8.81MB Simrad multibeam vendor format
1077_20140108_203141_raw.all.mb56.gz 7.93MB Simrad multibeam vendor format
1078_20140108_213141_raw.all.mb56.gz 7.71MB Simrad multibeam vendor format
1079_20140108_223141_raw.all.mb56.gz 7.76MB Simrad multibeam vendor format
1080_20140108_233141_raw.all.mb56.gz 8.31MB Simrad multibeam vendor format
1081_20140109_003141_raw.all.mb56.gz 8.76MB Simrad multibeam vendor format
1082_20140109_013141_raw.all.mb56.gz 8.78MB Simrad multibeam vendor format
1083_20140109_023141_raw.all.mb56.gz 8.54MB Simrad multibeam vendor format
1084_20140109_033141_raw.all.mb56.gz 8.71MB Simrad multibeam vendor format
1085_20140109_043141_raw.all.mb56.gz 8.73MB Simrad multibeam vendor format
1086_20140109_053141_raw.all.mb56.gz 8.72MB Simrad multibeam vendor format
1087_20140109_063141_raw.all.mb56.gz 8.04MB Simrad multibeam vendor format
1088_20140109_073141_raw.all.mb56.gz 8.61MB Simrad multibeam vendor format
1089_20140109_083141_raw.all.mb56.gz 8.68MB Simrad multibeam vendor format
1090_20140109_093141_raw.all.mb56.gz 8.90MB Simrad multibeam vendor format
1091_20140109_103141_raw.all.mb56.gz 8.18MB Simrad multibeam vendor format
1092_20140109_113141_raw.all.mb56.gz 7.94MB Simrad multibeam vendor format
1093_20140109_123141_raw.all.mb56.gz 8.90MB Simrad multibeam vendor format
1094_20140109_133141_raw.all.mb56.gz 8.73MB Simrad multibeam vendor format
1095_20140109_143141_raw.all.mb56.gz 8.87MB Simrad multibeam vendor format
1096_20140109_153141_raw.all.mb56.gz 8.79MB Simrad multibeam vendor format
1097_20140109_163141_raw.all.mb56.gz 8.83MB Simrad multibeam vendor format
1098_20140109_173141_raw.all.mb56.gz 8.22MB Simrad multibeam vendor format
1099_20140109_183141_raw.all.mb56.gz 8.34MB Simrad multibeam vendor format
1100_20140109_193141_raw.all.mb56.gz 8.46MB Simrad multibeam vendor format
1101_20140109_203141_raw.all.mb56.gz 9.05MB Simrad multibeam vendor format
1102_20140109_213141_raw.all.mb56.gz 9.12MB Simrad multibeam vendor format
1103_20140109_223141_raw.all.mb56.gz 9.17MB Simrad multibeam vendor format
1104_20140109_233141_raw.all.mb56.gz 9.13MB Simrad multibeam vendor format
1105_20140110_003141_raw.all.mb56.gz 9.08MB Simrad multibeam vendor format
1106_20140110_013141_raw.all.mb56.gz 9.22MB Simrad multibeam vendor format
1107_20140110_023141_raw.all.mb56.gz 9.00MB Simrad multibeam vendor format
1108_20140110_033141_raw.all.mb56.gz 9.09MB Simrad multibeam vendor format
1109_20140110_043141_raw.all.mb56.gz 9.25MB Simrad multibeam vendor format
1110_20140110_053141_raw.all.mb56.gz 9.29MB Simrad multibeam vendor format
1111_20140110_063141_raw.all.mb56.gz 9.26MB Simrad multibeam vendor format
1112_20140110_073141_raw.all.mb56.gz 9.25MB Simrad multibeam vendor format
1113_20140110_083141_raw.all.mb56.gz 9.28MB Simrad multibeam vendor format
1114_20140110_093141_raw.all.mb56.gz 9.19MB Simrad multibeam vendor format
1115_20140110_103141_raw.all.mb56.gz 9.18MB Simrad multibeam vendor format
1116_20140110_113141_raw.all.mb56.gz 8.98MB Simrad multibeam vendor format
1117_20140110_123141_raw.all.mb56.gz 8.89MB Simrad multibeam vendor format
1118_20140110_133141_raw.all.mb56.gz 8.83MB Simrad multibeam vendor format
1119_20140110_143141_raw.all.mb56.gz 8.14MB Simrad multibeam vendor format
1120_20140110_153141_raw.all.mb56.gz 8.85MB Simrad multibeam vendor format
1121_20140110_163141_raw.all.mb56.gz 8.71MB Simrad multibeam vendor format
1122_20140110_173141_raw.all.mb56.gz 9.06MB Simrad multibeam vendor format
1123_20140110_183141_raw.all.mb56.gz 9.21MB Simrad multibeam vendor format
1124_20140110_193141_raw.all.mb56.gz 8.18MB Simrad multibeam vendor format
1125_20140110_203141_raw.all.mb56.gz 8.20MB Simrad multibeam vendor format
1126_20140110_213141_raw.all.mb56.gz 8.61MB Simrad multibeam vendor format
1127_20140110_223141_raw.all.mb56.gz 7.92MB Simrad multibeam vendor format
1128_20140110_233141_raw.all.mb56.gz 8.25MB Simrad multibeam vendor format
1129_20140111_003141_raw.all.mb56.gz 8.77MB Simrad multibeam vendor format
1130_20140111_013141_raw.all.mb56.gz 8.84MB Simrad multibeam vendor format
1131_20140111_023141_raw.all.mb56.gz 8.69MB Simrad multibeam vendor format
1132_20140111_033141_raw.all.mb56.gz 8.92MB Simrad multibeam vendor format
1133_20140111_043141_raw.all.mb56.gz 8.77MB Simrad multibeam vendor format
1134_20140111_053141_raw.all.mb56.gz 9.00MB Simrad multibeam vendor format
1135_20140111_063141_raw.all.mb56.gz 8.96MB Simrad multibeam vendor format
1136_20140111_073141_raw.all.mb56.gz 8.89MB Simrad multibeam vendor format
1137_20140111_083141_raw.all.mb56.gz 9.03MB Simrad multibeam vendor format
1138_20140111_093141_raw.all.mb56.gz 9.04MB Simrad multibeam vendor format
1139_20140111_103141_raw.all.mb56.gz 8.83MB Simrad multibeam vendor format
1140_20140111_113141_raw.all.mb56.gz 8.66MB Simrad multibeam vendor format
1141_20140111_123141_raw.all.mb56.gz 9.00MB Simrad multibeam vendor format
1142_20140111_133141_raw.all.mb56.gz 9.03MB Simrad multibeam vendor format
1143_20140111_143141_raw.all.mb56.gz 8.85MB Simrad multibeam vendor format
1144_20140111_153141_raw.all.mb56.gz 8.76MB Simrad multibeam vendor format
1145_20140111_163141_raw.all.mb56.gz 8.85MB Simrad multibeam vendor format
1146_20140111_173141_raw.all.mb56.gz 8.67MB Simrad multibeam vendor format
1147_20140111_183141_raw.all.mb56.gz 8.79MB Simrad multibeam vendor format
1148_20140111_193141_raw.all.mb56.gz 8.79MB Simrad multibeam vendor format
1149_20140111_203141_raw.all.mb56.gz 9.13MB Simrad multibeam vendor format
1150_20140111_213141_raw.all.mb56.gz 9.61MB Simrad multibeam vendor format
1151_20140111_223141_raw.all.mb56.gz 9.26MB Simrad multibeam vendor format
1152_20140111_233141_raw.all.mb56.gz 8.94MB Simrad multibeam vendor format
1153_20140112_003141_raw.all.mb56.gz 9.64MB Simrad multibeam vendor format
1154_20140112_013141_raw.all.mb56.gz 9.69MB Simrad multibeam vendor format
1155_20140112_023141_raw.all.mb56.gz 8.85MB Simrad multibeam vendor format
1156_20140112_033141_raw.all.mb56.gz 8.88MB Simrad multibeam vendor format
1157_20140112_043141_raw.all.mb56.gz 9.05MB Simrad multibeam vendor format
1158_20140112_053141_raw.all.mb56.gz 8.82MB Simrad multibeam vendor format
1159_20140112_063141_raw.all.mb56.gz 9.42MB Simrad multibeam vendor format
1160_20140112_073141_raw.all.mb56.gz 9.92MB Simrad multibeam vendor format
1161_20140112_083141_raw.all.mb56.gz 9.06MB Simrad multibeam vendor format
1162_20140112_093141_raw.all.mb56.gz 9.05MB Simrad multibeam vendor format
1163_20140112_103141_raw.all.mb56.gz 9.36MB Simrad multibeam vendor format
1164_20140112_113141_raw.all.mb56.gz 9.26MB Simrad multibeam vendor format
1165_20140112_123141_raw.all.mb56.gz 9.29MB Simrad multibeam vendor format
1166_20140112_133141_raw.all.mb56.gz 9.05MB Simrad multibeam vendor format
1167_20140112_143141_raw.all.mb56.gz 9.24MB Simrad multibeam vendor format
1168_20140112_153141_raw.all.mb56.gz 8.79MB Simrad multibeam vendor format
1169_20140112_163141_raw.all.mb56.gz 8.83MB Simrad multibeam vendor format
1170_20140112_173141_raw.all.mb56.gz 8.86MB Simrad multibeam vendor format
1171_20140112_183141_raw.all.mb56.gz 9.00MB Simrad multibeam vendor format
1172_20140112_193141_raw.all.mb56.gz 9.40MB Simrad multibeam vendor format
1173_20140112_203141_raw.all.mb56.gz 9.68MB Simrad multibeam vendor format
1174_20140112_213141_raw.all.mb56.gz 9.05MB Simrad multibeam vendor format
1175_20140112_223141_raw.all.mb56.gz 9.16MB Simrad multibeam vendor format
1176_20140112_233141_raw.all.mb56.gz 8.82MB Simrad multibeam vendor format
1177_20140113_003141_raw.all.mb56.gz 9.36MB Simrad multibeam vendor format
1178_20140113_013141_raw.all.mb56.gz 9.62MB Simrad multibeam vendor format
1179_20140113_023141_raw.all.mb56.gz 8.85MB Simrad multibeam vendor format
1180_20140113_033141_raw.all.mb56.gz 9.61MB Simrad multibeam vendor format
1181_20140113_043141_raw.all.mb56.gz 8.96MB Simrad multibeam vendor format
1182_20140113_053141_raw.all.mb56.gz 9.47MB Simrad multibeam vendor format
1183_20140113_063141_raw.all.mb56.gz 8.79MB Simrad multibeam vendor format
1184_20140113_073141_raw.all.mb56.gz 9.41MB Simrad multibeam vendor format
1185_20140113_083141_raw.all.mb56.gz 9.14MB Simrad multibeam vendor format
1186_20140113_093141_raw.all.mb56.gz 9.06MB Simrad multibeam vendor format
1187_20140113_103141_raw.all.mb56.gz 9.15MB Simrad multibeam vendor format
1188_20140113_113141_raw.all.mb56.gz 8.92MB Simrad multibeam vendor format
1189_20140113_123141_raw.all.mb56.gz 8.36MB Simrad multibeam vendor format
1190_20140113_133141_raw.all.mb56.gz 8.35MB Simrad multibeam vendor format
1191_20140113_143141_raw.all.mb56.gz 8.27MB Simrad multibeam vendor format
1192_20140113_153141_raw.all.mb56.gz 8.10MB Simrad multibeam vendor format
1193_20140113_163141_raw.all.mb56.gz 8.25MB Simrad multibeam vendor format
1194_20140113_173141_raw.all.mb56.gz 9.18MB Simrad multibeam vendor format
1195_20140113_183141_raw.all.mb56.gz 9.74MB Simrad multibeam vendor format
1196_20140113_193141_raw.all.mb56.gz 9.27MB Simrad multibeam vendor format
1197_20140113_203141_raw.all.mb56.gz 9.27MB Simrad multibeam vendor format
1198_20140113_213141_raw.all.mb56.gz 8.95MB Simrad multibeam vendor format
1199_20140113_223141_raw.all.mb56.gz 9.16MB Simrad multibeam vendor format
1200_20140113_233141_raw.all.mb56.gz 9.15MB Simrad multibeam vendor format
1201_20140114_003141_raw.all.mb56.gz 9.20MB Simrad multibeam vendor format
1202_20140114_013141_raw.all.mb56.gz 9.56MB Simrad multibeam vendor format
1203_20140114_023141_raw.all.mb56.gz 9.06MB Simrad multibeam vendor format
1204_20140114_033141_raw.all.mb56.gz 9.17MB Simrad multibeam vendor format
1205_20140114_043141_raw.all.mb56.gz 9.32MB Simrad multibeam vendor format
1206_20140114_053141_raw.all.mb56.gz 9.22MB Simrad multibeam vendor format
1207_20140114_063141_raw.all.mb56.gz 9.20MB Simrad multibeam vendor format
1208_20140114_073141_raw.all.mb56.gz 9.10MB Simrad multibeam vendor format
1209_20140114_083141_raw.all.mb56.gz 9.07MB Simrad multibeam vendor format
1210_20140114_093141_raw.all.mb56.gz 9.07MB Simrad multibeam vendor format
1211_20140114_103141_raw.all.mb56.gz 9.39MB Simrad multibeam vendor format
1212_20140114_113141_raw.all.mb56.gz 9.50MB Simrad multibeam vendor format
1213_20140114_123141_raw.all.mb56.gz 9.22MB Simrad multibeam vendor format
1214_20140114_133141_raw.all.mb56.gz 9.17MB Simrad multibeam vendor format
1215_20140114_143141_raw.all.mb56.gz 9.03MB Simrad multibeam vendor format
1216_20140114_153141_raw.all.mb56.gz 8.89MB Simrad multibeam vendor format
1217_20140114_163141_raw.all.mb56.gz 9.16MB Simrad multibeam vendor format
1218_20140114_173141_raw.all.mb56.gz 9.14MB Simrad multibeam vendor format
1219_20140114_183141_raw.all.mb56.gz 9.23MB Simrad multibeam vendor format
1220_20140114_193142_raw.all.mb56.gz 9.05MB Simrad multibeam vendor format
1221_20140114_203142_raw.all.mb56.gz 9.10MB Simrad multibeam vendor format
1222_20140114_213142_raw.all.mb56.gz 9.69MB Simrad multibeam vendor format
1223_20140114_223142_raw.all.mb56.gz 9.73MB Simrad multibeam vendor format
1224_20140114_233142_raw.all.mb56.gz 9.78MB Simrad multibeam vendor format
1225_20140115_003143_raw.all.mb56.gz 9.75MB Simrad multibeam vendor format
1226_20140115_013143_raw.all.mb56.gz 9.30MB Simrad multibeam vendor format
1227_20140115_023143_raw.all.mb56.gz 9.07MB Simrad multibeam vendor format
1228_20140115_033143_raw.all.mb56.gz 9.10MB Simrad multibeam vendor format
1229_20140115_043144_raw.all.mb56.gz 8.96MB Simrad multibeam vendor format
1230_20140115_053144_raw.all.mb56.gz 8.89MB Simrad multibeam vendor format
1231_20140115_063144_raw.all.mb56.gz 8.92MB Simrad multibeam vendor format
1232_20140115_073144_raw.all.mb56.gz 9.26MB Simrad multibeam vendor format
1233_20140115_083144_raw.all.mb56.gz 9.50MB Simrad multibeam vendor format
1234_20140115_093144_raw.all.mb56.gz 9.39MB Simrad multibeam vendor format
1235_20140115_103144_raw.all.mb56.gz 8.90MB Simrad multibeam vendor format
1236_20140115_113144_raw.all.mb56.gz 9.14MB Simrad multibeam vendor format
1237_20140115_123144_raw.all.mb56.gz 9.15MB Simrad multibeam vendor format
1238_20140115_133144_raw.all.mb56.gz 9.13MB Simrad multibeam vendor format
1239_20140115_143144_raw.all.mb56.gz 9.08MB Simrad multibeam vendor format
1240_20140115_153144_raw.all.mb56.gz 9.32MB Simrad multibeam vendor format
1241_20140115_163144_raw.all.mb56.gz 9.42MB Simrad multibeam vendor format
1242_20140115_173144_raw.all.mb56.gz 9.45MB Simrad multibeam vendor format
1243_20140115_183144_raw.all.mb56.gz 9.71MB Simrad multibeam vendor format
1244_20140115_193144_raw.all.mb56.gz 9.96MB Simrad multibeam vendor format
1245_20140115_203144_raw.all.mb56.gz 9.42MB Simrad multibeam vendor format
1246_20140115_213144_raw.all.mb56.gz 8.92MB Simrad multibeam vendor format
1247_20140115_223144_raw.all.mb56.gz 8.80MB Simrad multibeam vendor format
1248_20140115_233144_raw.all.mb56.gz 8.89MB Simrad multibeam vendor format
1249_20140116_003144_raw.all.mb56.gz 8.83MB Simrad multibeam vendor format
1250_20140116_013144_raw.all.mb56.gz 8.63MB Simrad multibeam vendor format
1251_20140116_023144_raw.all.mb56.gz 8.58MB Simrad multibeam vendor format
1252_20140116_033144_raw.all.mb56.gz 8.38MB Simrad multibeam vendor format
1253_20140116_043144_raw.all.mb56.gz 8.31MB Simrad multibeam vendor format
1254_20140116_053144_raw.all.mb56.gz 8.20MB Simrad multibeam vendor format
1255_20140116_063144_raw.all.mb56.gz 8.74MB Simrad multibeam vendor format
1256_20140116_073144_raw.all.mb56.gz 11.74MB Simrad multibeam vendor format
1256_20140116_085336_raw.all.mb56.gz 8.82MB Simrad multibeam vendor format
1257_20140116_095334_raw.all.mb56.gz 8.77MB Simrad multibeam vendor format
1258_20140116_105334_raw.all.mb56.gz 8.86MB Simrad multibeam vendor format
1259_20140116_115334_raw.all.mb56.gz 9.02MB Simrad multibeam vendor format
1260_20140116_125334_raw.all.mb56.gz 8.84MB Simrad multibeam vendor format
1261_20140116_135334_raw.all.mb56.gz 8.71MB Simrad multibeam vendor format
1262_20140116_145334_raw.all.mb56.gz 8.85MB Simrad multibeam vendor format
1263_20140116_155334_raw.all.mb56.gz 8.81MB Simrad multibeam vendor format
1264_20140116_165334_raw.all.mb56.gz 8.87MB Simrad multibeam vendor format
1265_20140116_175334_raw.all.mb56.gz 8.97MB Simrad multibeam vendor format
1266_20140116_185334_raw.all.mb56.gz 8.94MB Simrad multibeam vendor format
1267_20140116_195334_raw.all.mb56.gz 8.96MB Simrad multibeam vendor format
1268_20140116_205334_raw.all.mb56.gz 8.56MB Simrad multibeam vendor format
1269_20140116_215334_raw.all.mb56.gz 8.42MB Simrad multibeam vendor format
1270_20140116_225335_raw.all.mb56.gz 8.56MB Simrad multibeam vendor format
1271_20140116_235335_raw.all.mb56.gz 8.60MB Simrad multibeam vendor format
1272_20140117_005335_raw.all.mb56.gz 8.70MB Simrad multibeam vendor format
1273_20140117_015335_raw.all.mb56.gz 8.77MB Simrad multibeam vendor format
1274_20140117_025335_raw.all.mb56.gz 8.73MB Simrad multibeam vendor format
1275_20140117_035335_raw.all.mb56.gz 8.89MB Simrad multibeam vendor format
1276_20140117_045335_raw.all.mb56.gz 8.90MB Simrad multibeam vendor format
1277_20140117_055335_raw.all.mb56.gz 9.00MB Simrad multibeam vendor format
1278_20140117_065335_raw.all.mb56.gz 9.08MB Simrad multibeam vendor format
1279_20140117_075335_raw.all.mb56.gz 8.90MB Simrad multibeam vendor format
1280_20140117_085335_raw.all.mb56.gz 8.87MB Simrad multibeam vendor format
1281_20140117_095335_raw.all.mb56.gz 8.70MB Simrad multibeam vendor format
1282_20140117_105335_raw.all.mb56.gz 8.37MB Simrad multibeam vendor format
1283_20140117_115335_raw.all.mb56.gz 8.55MB Simrad multibeam vendor format
1284_20140117_125335_raw.all.mb56.gz 8.59MB Simrad multibeam vendor format
1285_20140117_135335_raw.all.mb56.gz 8.18MB Simrad multibeam vendor format
1286_20140117_145335_raw.all.mb56.gz 8.15MB Simrad multibeam vendor format
1287_20140117_155335_raw.all.mb56.gz 8.58MB Simrad multibeam vendor format
1288_20140117_165335_raw.all.mb56.gz 8.82MB Simrad multibeam vendor format
1289_20140117_175335_raw.all.mb56.gz 8.89MB Simrad multibeam vendor format
1290_20140117_185335_raw.all.mb56.gz 8.88MB Simrad multibeam vendor format
1291_20140117_195335_raw.all.mb56.gz 8.87MB Simrad multibeam vendor format
1292_20140117_205335_raw.all.mb56.gz 9.13MB Simrad multibeam vendor format
1293_20140117_215335_raw.all.mb56.gz 9.09MB Simrad multibeam vendor format
1294_20140117_225335_raw.all.mb56.gz 9.15MB Simrad multibeam vendor format
1295_20140117_235335_raw.all.mb56.gz 8.89MB Simrad multibeam vendor format
1296_20140118_005335_raw.all.mb56.gz 8.96MB Simrad multibeam vendor format
1297_20140118_015335_raw.all.mb56.gz 8.82MB Simrad multibeam vendor format
1298_20140118_025335_raw.all.mb56.gz 8.48MB Simrad multibeam vendor format
1299_20140118_035335_raw.all.mb56.gz 8.14MB Simrad multibeam vendor format
1300_20140118_045335_raw.all.mb56.gz 8.17MB Simrad multibeam vendor format
1301_20140118_055335_raw.all.mb56.gz 8.23MB Simrad multibeam vendor format
1302_20140118_065335_raw.all.mb56.gz 8.00MB Simrad multibeam vendor format
1303_20140118_075335_raw.all.mb56.gz 7.97MB Simrad multibeam vendor format
1304_20140118_085335_raw.all.mb56.gz 8.10MB Simrad multibeam vendor format
1305_20140118_095335_raw.all.mb56.gz 8.30MB Simrad multibeam vendor format
1306_20140118_105335_raw.all.mb56.gz 8.58MB Simrad multibeam vendor format
1307_20140118_115335_raw.all.mb56.gz 8.76MB Simrad multibeam vendor format
1308_20140118_125335_raw.all.mb56.gz 8.59MB Simrad multibeam vendor format
1309_20140118_135335_raw.all.mb56.gz 8.56MB Simrad multibeam vendor format
1310_20140118_145335_raw.all.mb56.gz 8.34MB Simrad multibeam vendor format
1311_20140118_155335_raw.all.mb56.gz 8.18MB Simrad multibeam vendor format
1312_20140118_165335_raw.all.mb56.gz 8.32MB Simrad multibeam vendor format
1313_20140118_175335_raw.all.mb56.gz 7.94MB Simrad multibeam vendor format
1314_20140118_185335_raw.all.mb56.gz 7.90MB Simrad multibeam vendor format
1315_20140118_195335_raw.all.mb56.gz 6.12MB Simrad multibeam vendor format
1315_20140118_204108_raw.all.mb56.gz 7.97MB Simrad multibeam vendor format
1316_20140118_214108_raw.all.mb56.gz 8.41MB Simrad multibeam vendor format
1317_20140118_224108_raw.all.mb56.gz 8.68MB Simrad multibeam vendor format
1318_20140118_234108_raw.all.mb56.gz 8.73MB Simrad multibeam vendor format
1319_20140119_004108_raw.all.mb56.gz 8.83MB Simrad multibeam vendor format
1320_20140119_014108_raw.all.mb56.gz 8.94MB Simrad multibeam vendor format
1321_20140119_024108_raw.all.mb56.gz 9.06MB Simrad multibeam vendor format
1322_20140119_034108_raw.all.mb56.gz 8.63MB Simrad multibeam vendor format
1323_20140119_044108_raw.all.mb56.gz 8.88MB Simrad multibeam vendor format
1324_20140119_054108_raw.all.mb56.gz 8.74MB Simrad multibeam vendor format
1325_20140119_064108_raw.all.mb56.gz 8.68MB Simrad multibeam vendor format
1326_20140119_074108_raw.all.mb56.gz 8.79MB Simrad multibeam vendor format
1327_20140119_084108_raw.all.mb56.gz 8.88MB Simrad multibeam vendor format
1328_20140119_094108_raw.all.mb56.gz 8.89MB Simrad multibeam vendor format
1329_20140119_104108_raw.all.mb56.gz 8.78MB Simrad multibeam vendor format
1330_20140119_114108_raw.all.mb56.gz 8.77MB Simrad multibeam vendor format
1331_20140119_124108_raw.all.mb56.gz 8.79MB Simrad multibeam vendor format
1332_20140119_134108_raw.all.mb56.gz 9.10MB Simrad multibeam vendor format
1333_20140119_144108_raw.all.mb56.gz 9.10MB Simrad multibeam vendor format
1334_20140119_154108_raw.all.mb56.gz 9.13MB Simrad multibeam vendor format
1335_20140119_164108_raw.all.mb56.gz 9.08MB Simrad multibeam vendor format
1336_20140119_174108_raw.all.mb56.gz 9.16MB Simrad multibeam vendor format
1337_20140119_184108_raw.all.mb56.gz 9.19MB Simrad multibeam vendor format
1338_20140119_194108_raw.all.mb56.gz 9.07MB Simrad multibeam vendor format
1339_20140119_204108_raw.all.mb56.gz 9.00MB Simrad multibeam vendor format
1340_20140119_214108_raw.all.mb56.gz 8.83MB Simrad multibeam vendor format
1341_20140119_224108_raw.all.mb56.gz 8.97MB Simrad multibeam vendor format
1342_20140119_234108_raw.all.mb56.gz 8.78MB Simrad multibeam vendor format
1343_20140120_004108_raw.all.mb56.gz 5.29MB Simrad multibeam vendor format
1344_20140120_014108_raw.all.mb56.gz 4.19MB Simrad multibeam vendor format

Metadata Files: 3

Files File Size Description
NBP1310_Multibeam.xml NGDC created ISO metadata
NBP1310.xml 16.5KB XML metadata file
mb_bag_info.tar.gz 35.8KB Additional cruise information